AFR89VW LFPG-KJFK

Flight info

Callsign AFR89VW
Flight time 8h 19m
Altitude 40000
Route ELCOB UT300 SENLO DCT JSY DCT LIZAD DCT ARKIL DCT LIMRI/M084F390 DCT 52N020W 52N030W 51N040W 49N050W DCT JOOPY/N0488F400 N328A TUSKY DCT PLYMM PARCH4
Aircraft A359/H-SDE2E3GHIJ3J4J5LM1ORWXY/LB1D1

Departure

Time 2026-05-09 02:49
Airport Charles de Gaulle International Airport (LFPG)

Arrival

Time 2026-05-09 11:09
Airport John F. Kennedy International Airport (KJFK)
Time Latitude Longitude Altitude Speed Heading
2026-05-09 01:29 49.00761 2.58577 361 ft 0 kts 266°
2026-05-09 01:59 49.00767 2.58686 362 ft 0 kts 266°
2026-05-09 01:59 49.00763 2.58604 365 ft 21 kts 266°
2026-05-09 01:59 49.00768 2.58694 362 ft 0 kts 176°
2026-05-09 02:13 49.00761 2.58577 361 ft 2 kts 266°
2026-05-09 02:23 49.00762 2.58601 361 ft 4 kts 266°
2026-05-09 02:23 49.00763 2.58642 361 ft 3 kts 266°
2026-05-09 02:23 49.00767 2.58676 365 ft 4 kts 230°
2026-05-09 02:24 49.00787 2.58689 361 ft 4 kts 175°
2026-05-09 02:24 49.00805 2.58686 361 ft 0 kts 175°
2026-05-09 02:24 49.00805 2.58685 361 ft 0 kts 175°
2026-05-09 02:25 49.00804 2.58685 361 ft 0 kts 175°
2026-05-09 02:27 49.00803 2.58685 361 ft 0 kts 175°
2026-05-09 02:32 49.00791 2.58687 367 ft 5 kts 175°
2026-05-09 02:32 49.00736 2.58694 366 ft 11 kts 175°
2026-05-09 02:32 49.00643 2.58706 362 ft 14 kts 174°
2026-05-09 02:33 49.00536 2.58718 362 ft 16 kts 176°
2026-05-09 02:33 49.00416 2.58731 366 ft 18 kts 176°
2026-05-09 02:33 49.00284 2.58748 361 ft 20 kts 174°
2026-05-09 02:33 49.00158 2.58764 360 ft 18 kts 175°
2026-05-09 02:34 49.00070 2.58760 366 ft 11 kts 190°
2026-05-09 02:34 48.99989 2.58737 365 ft 13 kts 190°
2026-05-09 02:34 48.99915 2.58670 367 ft 11 kts 241°
2026-05-09 02:34 48.99940 2.58651 363 ft 0 kts 265°
2026-05-09 02:35 48.99939 2.58628 366 ft 6 kts 264°
2026-05-09 02:35 48.99932 2.58519 360 ft 14 kts 265°
2026-05-09 02:35 48.99921 2.58322 362 ft 24 kts 265°
2026-05-09 02:35 48.99906 2.58024 360 ft 30 kts 266°
2026-05-09 02:36 48.99891 2.57704 360 ft 31 kts 266°
2026-05-09 02:36 48.99872 2.57380 368 ft 31 kts 265°
2026-05-09 02:36 48.99854 2.57052 364 ft 31 kts 266°
2026-05-09 02:36 48.99838 2.56735 360 ft 30 kts 265°
2026-05-09 02:37 48.99821 2.56427 363 ft 26 kts 265°
2026-05-09 02:37 48.99805 2.56150 366 ft 27 kts 265°
2026-05-09 02:37 48.99808 2.55882 365 ft 13 kts 286°
2026-05-09 02:37 48.99812 2.55866 365 ft 3 kts 290°
2026-05-09 02:38 48.99847 2.55811 368 ft 12 kts 335°
2026-05-09 02:38 48.99923 2.55744 369 ft 13 kts 312°
2026-05-09 02:38 49.00002 2.55668 362 ft 14 kts 342°
2026-05-09 02:38 49.00099 2.55623 367 ft 15 kts 343°
2026-05-09 02:39 49.00206 2.55573 366 ft 17 kts 343°
2026-05-09 02:39 49.00319 2.55524 365 ft 18 kts 344°
2026-05-09 02:39 49.00440 2.55473 363 ft 18 kts 344°
2026-05-09 02:39 49.00568 2.55418 367 ft 19 kts 344°
2026-05-09 02:40 49.00701 2.55362 368 ft 20 kts 344°
2026-05-09 02:40 49.00835 2.55305 367 ft 21 kts 344°
2026-05-09 02:40 49.00980 2.55242 366 ft 22 kts 342°
2026-05-09 02:40 49.01127 2.55175 361 ft 23 kts 343°
2026-05-09 02:41 49.01274 2.55108 368 ft 23 kts 344°
2026-05-09 02:41 49.01431 2.55048 366 ft 24 kts 347°
2026-05-09 02:41 49.01597 2.55022 366 ft 24 kts 355°
2026-05-09 02:41 49.01741 2.55004 367 ft 20 kts 355°
2026-05-09 02:42 49.01841 2.54960 366 ft 14 kts 312°
2026-05-09 02:42 49.01846 2.54816 364 ft 16 kts 265°
2026-05-09 02:42 49.01835 2.54616 361 ft 22 kts 265°
2026-05-09 02:42 49.01822 2.54361 363 ft 26 kts 265°
2026-05-09 02:43 49.01807 2.54086 368 ft 26 kts 265°
2026-05-09 02:43 49.01792 2.53803 366 ft 27 kts 265°
2026-05-09 02:43 49.01776 2.53506 367 ft 28 kts 264°
2026-05-09 02:43 49.01760 2.53216 361 ft 28 kts 265°
2026-05-09 02:44 49.01745 2.52929 368 ft 22 kts 266°
2026-05-09 02:44 49.01772 2.52744 365 ft 18 kts 304°
2026-05-09 02:44 49.01818 2.52565 368 ft 18 kts 266°
2026-05-09 02:44 49.01825 2.52395 369 ft 12 kts 309°
2026-05-09 02:45 49.01884 2.52309 369 ft 12 kts 292°
2026-05-09 02:45 49.01884 2.52173 366 ft 14 kts 264°
2026-05-09 02:45 49.01875 2.52019 368 ft 16 kts 265°
2026-05-09 02:45 49.01866 2.51845 365 ft 17 kts 265°
2026-05-09 02:46 49.01857 2.51655 362 ft 19 kts 265°
2026-05-09 02:46 49.01847 2.51484 364 ft 14 kts 265°
2026-05-09 02:46 49.01855 2.51331 362 ft 15 kts 291°
2026-05-09 02:46 49.01942 2.51253 362 ft 15 kts
2026-05-09 02:47 49.02028 2.51336 369 ft 12 kts 34°
2026-05-09 02:47 49.02046 2.51349 369 ft 3 kts 25°
2026-05-09 02:47 49.02070 2.51392 367 ft 3 kts 76°
2026-05-09 02:47 49.02070 2.51414 369 ft 0 kts 84°
2026-05-09 02:48 49.02089 2.51687 365 ft 61 kts 85°
2026-05-09 02:49 49.02138 2.52665 368 ft 122 kts 85°
2026-05-09 02:49 49.02222 2.54242 370 ft 174 kts 86°
2026-05-09 02:49 49.02304 2.56233 751 ft 192 kts 85°
2026-05-09 02:49 49.02366 2.58225 1644 ft 185 kts 88°
2026-05-09 02:50 49.02415 2.60187 2361 ft 188 kts 88°
2026-05-09 02:50 49.02479 2.62211 2921 ft 197 kts 86°
2026-05-09 02:50 49.02553 2.63361 3116 ft 207 kts 84°
2026-05-09 02:51 49.02666 2.64757 3408 ft 215 kts 84°
2026-05-09 02:51 49.02842 2.67086 3823 ft 231 kts 84°
2026-05-09 02:51 49.03009 2.69635 4202 ft 249 kts 86°
2026-05-09 02:52 49.03163 2.72311 4821 ft 258 kts 86°
2026-05-09 02:52 49.03318 2.75069 5450 ft 265 kts 86°
2026-05-09 02:52 49.03466 2.77902 6153 ft 271 kts 87°
2026-05-09 02:52 49.03615 2.80788 6872 ft 277 kts 87°
2026-05-09 02:53 49.03766 2.83745 7591 ft 282 kts 87°
2026-05-09 02:53 49.03919 2.86751 8346 ft 288 kts 86°
2026-05-09 02:53 49.04075 2.89822 9119 ft 293 kts 86°
2026-05-09 02:53 49.04074 2.92957 9886 ft 298 kts 99°
2026-05-09 02:54 49.03476 2.95995 10469 ft 306 kts 119°
2026-05-09 02:54 49.02156 2.98589 10854 ft 318 kts 142°
2026-05-09 02:54 49.00242 3.00279 11491 ft 320 kts 163°
2026-05-09 02:54 48.98062 3.00874 12245 ft 320 kts 180°
2026-05-09 02:55 48.95823 3.00968 12978 ft 325 kts 181°
2026-05-09 02:55 48.93548 3.00936 13715 ft 328 kts 186°
2026-05-09 02:55 48.91335 3.00117 14370 ft 329 kts 205°
2026-05-09 02:55 48.89441 2.98192 14983 ft 331 kts 225°
2026-05-09 02:56 48.88092 2.95365 15629 ft 334 kts 245°
2026-05-09 02:56 48.87410 2.91980 16274 ft 338 kts 259°
2026-05-09 02:56 48.87007 2.88439 16919 ft 342 kts 260°
2026-05-09 02:56 48.86608 2.84855 17613 ft 346 kts 260°
2026-05-09 02:57 48.86195 2.81249 18291 ft 349 kts 260°
2026-05-09 02:57 48.85767 2.77589 18877 ft 354 kts 259°
2026-05-09 02:57 48.85331 2.73891 19442 ft 359 kts 259°
2026-05-09 02:57 48.84884 2.70126 19999 ft 364 kts 259°
2026-05-09 02:58 48.84428 2.66333 20562 ft 368 kts 259°
2026-05-09 02:58 48.83762 2.62611 21095 ft 373 kts 248°
2026-05-09 02:58 48.82515 2.59154 21644 ft 377 kts 235°
2026-05-09 02:58 48.80989 2.55878 22196 ft 381 kts 233°
2026-05-09 02:59 48.79414 2.52560 22749 ft 386 kts 233°
2026-05-09 02:59 48.77860 2.49271 23286 ft 390 kts 233°
2026-05-09 02:59 48.76275 2.45907 23795 ft 395 kts 233°
2026-05-09 02:59 48.74668 2.42512 24270 ft 398 kts 233°
2026-05-09 03:00 48.72857 2.39352 24761 ft 399 kts 221°
2026-05-09 03:00 48.70646 2.36801 25248 ft 400 kts 211°
2026-05-09 03:00 48.68260 2.34626 25713 ft 402 kts 209°
2026-05-09 03:00 48.65836 2.32470 26195 ft 405 kts 209°
2026-05-09 03:01 48.63402 2.30297 26681 ft 408 kts 210°
2026-05-09 03:01 48.60958 2.28109 27168 ft 410 kts 209°
2026-05-09 03:01 48.58492 2.25901 27626 ft 413 kts 209°
2026-05-09 03:01 48.56020 2.23686 28082 ft 415 kts 209°
2026-05-09 03:02 48.53473 2.21610 28516 ft 417 kts 203°
2026-05-09 03:02 48.50736 2.20162 28950 ft 418 kts 192°
2026-05-09 03:02 48.47856 2.19510 29372 ft 419 kts 181°
2026-05-09 03:02 48.44946 2.19571 29794 ft 420 kts 176°
2026-05-09 03:03 48.42009 2.19831 30191 ft 423 kts 175°
2026-05-09 03:03 48.39074 2.20092 30582 ft 424 kts 175°
2026-05-09 03:03 48.36121 2.20345 30962 ft 425 kts 175°
2026-05-09 03:03 48.33161 2.20593 31303 ft 427 kts 175°
2026-05-09 03:04 48.30192 2.20846 31634 ft 429 kts 175°
2026-05-09 03:04 48.27211 2.21368 31959 ft 431 kts 170°
2026-05-09 03:04 48.24248 2.22085 32296 ft 433 kts 170°
2026-05-09 03:04 48.21274 2.22818 32618 ft 434 kts 170°
2026-05-09 03:05 48.18272 2.23452 32969 ft 436 kts 174°
2026-05-09 03:05 48.15237 2.23493 33321 ft 438 kts 183°
2026-05-09 03:05 48.12218 2.22750 33591 ft 443 kts 193°
2026-05-09 03:05 48.09297 2.21219 33789 ft 449 kts 202°
2026-05-09 03:06 48.06559 2.18911 33921 ft 457 kts 213°
2026-05-09 03:06 48.04095 2.15862 34075 ft 464 kts 223°
2026-05-09 03:06 48.02004 2.12148 34204 ft 472 kts 233°
2026-05-09 03:06 48.00370 2.07853 34337 ft 480 kts 243°
2026-05-09 03:07 47.99609 2.04884 34427 ft 485 kts 250°
2026-05-09 03:07 47.98932 2.00340 34558 ft 491 kts 260°
2026-05-09 03:07 47.98809 1.95218 34806 ft 495 kts 271°
2026-05-09 03:07 47.99341 1.90143 35145 ft 497 kts 283°
2026-05-09 03:08 48.00512 1.85293 35501 ft 497 kts 294°
2026-05-09 03:08 48.02275 1.80871 35877 ft 497 kts 305°
2026-05-09 03:08 48.04580 1.77010 36169 ft 498 kts 316°
2026-05-09 03:08 48.07341 1.73877 36416 ft 500 kts 327°
2026-05-09 03:09 48.10359 1.71287 36671 ft 500 kts 330°
2026-05-09 03:09 48.13376 1.68828 36903 ft 501 kts 330°
2026-05-09 03:09 48.16439 1.66328 37062 ft 502 kts 330°
2026-05-09 03:09 48.19497 1.63818 37312 ft 501 kts 329°
2026-05-09 03:10 48.22550 1.61305 37597 ft 500 kts 329°
2026-05-09 03:10 48.25597 1.58789 37854 ft 498 kts 329°
2026-05-09 03:10 48.28635 1.56274 38105 ft 497 kts 329°
2026-05-09 03:10 48.31659 1.53767 38355 ft 497 kts 329°
2026-05-09 03:11 48.34690 1.51250 38587 ft 496 kts 329°
2026-05-09 03:11 48.37652 1.48614 38761 ft 493 kts 323°
2026-05-09 03:11 48.40305 1.45389 38895 ft 489 kts 312°
2026-05-09 03:12 48.44383 1.37300 39064 ft 485 kts 300°
2026-05-09 03:12 48.47844 1.28616 39299 ft 485 kts 297°
2026-05-09 03:12 48.49534 1.24220 39430 ft 485 kts 297°
2026-05-09 03:13 48.52929 1.15440 39649 ft 485 kts 297°
2026-05-09 03:13 48.54643 1.11052 39763 ft 485 kts 298°
2026-05-09 03:13 48.56366 1.06663 39885 ft 485 kts 298°
2026-05-09 03:14 48.59812 0.97895 40035 ft 486 kts 298°
2026-05-09 03:14 48.63267 0.89081 40045 ft 488 kts 298°
2026-05-09 03:15 48.66719 0.80244 40054 ft 488 kts 298°
2026-05-09 03:15 48.70169 0.71377 40053 ft 488 kts 297°
2026-05-09 03:16 48.73590 0.62556 40051 ft 489 kts 297°
2026-05-09 03:16 48.77027 0.53664 40053 ft 489 kts 297°
2026-05-09 03:17 48.80459 0.44753 40053 ft 488 kts 297°
2026-05-09 03:17 48.83866 0.35878 40057 ft 489 kts 297°
2026-05-09 03:18 48.87288 0.26935 40054 ft 490 kts 297°
2026-05-09 03:18 48.90707 0.17968 40053 ft 489 kts 297°
2026-05-09 03:19 48.94119 0.08990 40053 ft 489 kts 297°
2026-05-09 03:19 48.97496 0.00074 40053 ft 489 kts 297°
2026-05-09 03:20 49.00892 -0.08924 40050 ft 490 kts 297°
2026-05-09 03:20 49.04268 -0.17944 40037 ft 490 kts 295°
2026-05-09 03:21 49.06602 -0.27585 40043 ft 482 kts 278°
2026-05-09 03:21 49.07224 -0.37692 40048 ft 478 kts 270°
2026-05-09 03:22 49.07410 -0.47825 40048 ft 478 kts 268°
2026-05-09 03:22 49.07535 -0.57981 40048 ft 478 kts 268°
2026-05-09 03:23 49.07674 -0.68075 40049 ft 479 kts 269°
2026-05-09 03:23 49.07824 -0.78232 40045 ft 479 kts 269°
2026-05-09 03:24 49.07970 -0.88388 40050 ft 479 kts 268°
2026-05-09 03:24 49.08107 -0.98556 40043 ft 479 kts 268°
2026-05-09 03:25 49.08234 -1.08724 40041 ft 479 kts 268°
2026-05-09 03:25 49.08658 -1.18891 40039 ft 483 kts 277°
2026-05-09 03:26 49.10098 -1.28919 40032 ft 484 kts 281°
2026-05-09 03:26 49.11716 -1.38914 40037 ft 486 kts 281°
2026-05-09 03:27 49.13341 -1.48863 40031 ft 486 kts 281°
2026-05-09 03:27 49.14951 -1.58883 40030 ft 486 kts 281°
2026-05-09 03:28 49.16546 -1.68932 40038 ft 486 kts 281°
2026-05-09 03:28 49.18120 -1.78934 40049 ft 486 kts 281°
2026-05-09 03:29 49.19695 -1.89003 40029 ft 487 kts 281°
2026-05-09 03:29 49.21264 -1.99087 40023 ft 487 kts 280°
2026-05-09 03:30 49.22848 -2.09177 40039 ft 487 kts 281°
2026-05-09 03:30 49.24564 -2.19147 40038 ft 488 kts 282°
2026-05-09 03:31 49.26320 -2.29191 40029 ft 488 kts 282°
2026-05-09 03:31 49.28046 -2.39245 40026 ft 489 kts 282°
2026-05-09 03:32 49.29750 -2.49322 40033 ft 488 kts 282°
2026-05-09 03:32 49.31443 -2.59413 40019 ft 488 kts 281°
2026-05-09 03:33 49.33126 -2.69502 40026 ft 489 kts 281°
2026-05-09 03:33 49.34804 -2.79617 40022 ft 489 kts 281°
2026-05-09 03:34 49.36468 -2.89704 40037 ft 489 kts 281°
2026-05-09 03:34 49.37848 -2.98117 40034 ft 489 kts 281°
2026-05-09 03:35 49.39502 -3.08253 40026 ft 489 kts 281°
2026-05-09 03:35 49.41152 -3.18427 40035 ft 490 kts 281°
2026-05-09 03:36 49.42790 -3.28592 40032 ft 490 kts 281°
2026-05-09 03:36 49.44420 -3.38765 40032 ft 490 kts 281°
2026-05-09 03:37 49.46034 -3.48906 40032 ft 490 kts 281°
2026-05-09 03:37 49.47647 -3.59099 40048 ft 490 kts 281°
2026-05-09 03:38 49.49251 -3.69294 40031 ft 490 kts 281°
2026-05-09 03:38 49.50847 -3.79508 40029 ft 490 kts 281°
2026-05-09 03:39 49.52424 -3.89667 40028 ft 490 kts 281°
2026-05-09 03:39 49.54001 -3.99885 40030 ft 490 kts 281°
2026-05-09 03:40 49.55569 -4.10114 40036 ft 491 kts 281°
2026-05-09 03:40 49.57128 -4.20346 40022 ft 491 kts 281°
2026-05-09 03:41 49.58732 -4.30578 40026 ft 492 kts 284°
2026-05-09 03:41 49.61338 -4.40397 40024 ft 495 kts 292°
2026-05-09 03:42 49.64281 -4.49947 40052 ft 496 kts 293°
2026-05-09 03:42 49.67288 -4.59522 40035 ft 496 kts 293°
2026-05-09 03:43 49.70285 -4.69137 40033 ft 496 kts 293°
2026-05-09 03:43 49.73239 -4.78707 40032 ft 496 kts 293°
2026-05-09 03:44 49.76197 -4.88339 40018 ft 496 kts 292°
2026-05-09 03:44 49.79147 -4.97990 40035 ft 495 kts 292°
2026-05-09 03:45 49.82087 -5.07642 40018 ft 495 kts 292°
2026-05-09 03:45 49.85019 -5.17302 40035 ft 495 kts 292°
2026-05-09 03:46 49.87946 -5.26985 40034 ft 495 kts 292°
2026-05-09 03:46 49.90843 -5.36608 40032 ft 495 kts 292°
2026-05-09 03:47 49.93748 -5.46292 40041 ft 495 kts 292°
2026-05-09 03:47 49.96651 -5.56013 40027 ft 495 kts 292°
2026-05-09 03:48 49.99542 -5.65732 40030 ft 495 kts 292°
2026-05-09 03:48 50.02428 -5.75470 40035 ft 495 kts 292°
2026-05-09 03:49 50.05299 -5.85200 40035 ft 495 kts 292°
2026-05-09 03:49 50.08165 -5.94948 40043 ft 494 kts 292°
2026-05-09 03:50 50.11008 -6.04663 40037 ft 494 kts 292°
2026-05-09 03:50 50.13846 -6.14398 40037 ft 494 kts 292°
2026-05-09 03:51 50.16692 -6.24198 40040 ft 494 kts 292°
2026-05-09 03:51 50.19501 -6.33912 40040 ft 494 kts 292°
2026-05-09 03:52 50.22325 -6.43714 40045 ft 494 kts 291°
2026-05-09 03:52 50.25134 -6.53509 40046 ft 492 kts 292°
2026-05-09 03:53 50.27924 -6.63274 40043 ft 491 kts 292°
2026-05-09 03:53 50.30698 -6.73023 40043 ft 491 kts 291°
2026-05-09 03:54 50.33469 -6.82804 40046 ft 491 kts 291°
2026-05-09 03:54 50.36226 -6.92581 40051 ft 491 kts 291°
2026-05-09 03:55 50.38964 -7.02326 40050 ft 491 kts 291°
2026-05-09 03:55 50.41707 -7.12132 40055 ft 491 kts 292°
2026-05-09 03:56 50.44447 -7.21955 40053 ft 490 kts 290°
2026-05-09 03:56 50.47165 -7.31746 40062 ft 489 kts 290°
2026-05-09 03:57 50.49871 -7.41539 40062 ft 489 kts 291°
2026-05-09 03:57 50.52556 -7.51307 40067 ft 490 kts 291°
2026-05-09 03:58 50.55255 -7.61161 40067 ft 491 kts 291°
2026-05-09 03:58 50.57951 -7.71040 40068 ft 491 kts 291°
2026-05-09 03:59 50.60640 -7.80923 40076 ft 491 kts 291°
2026-05-09 03:59 50.63316 -7.90815 40073 ft 490 kts 290°
2026-05-09 04:00 50.65988 -8.00727 40081 ft 491 kts 290°
2026-05-09 04:00 50.68398 -8.10737 40080 ft 491 kts 286°
2026-05-09 04:01 50.70610 -8.20933 40088 ft 491 kts 287°
2026-05-09 04:01 50.72837 -8.31108 40086 ft 491 kts 288°
2026-05-09 04:02 50.75103 -8.41295 40086 ft 491 kts 287°
2026-05-09 04:02 50.77363 -8.51430 40098 ft 491 kts 288°
2026-05-09 04:03 50.79628 -8.61624 40097 ft 491 kts 288°
2026-05-09 04:03 50.81882 -8.71822 40097 ft 491 kts 287°
2026-05-09 04:04 50.84128 -8.82045 40102 ft 491 kts 287°
2026-05-09 04:04 50.86363 -8.92268 40099 ft 491 kts 287°
2026-05-09 04:05 50.88571 -9.02428 40103 ft 491 kts 288°
2026-05-09 04:05 50.90789 -9.12676 40105 ft 490 kts 287°
2026-05-09 04:06 50.92994 -9.22909 40102 ft 490 kts 287°
2026-05-09 04:06 50.95189 -9.33148 40103 ft 491 kts 287°
2026-05-09 04:07 50.97374 -9.43404 40110 ft 489 kts 287°
2026-05-09 04:07 50.99544 -9.53637 40111 ft 489 kts 287°
2026-05-09 04:08 51.01696 -9.63832 40111 ft 490 kts 288°
2026-05-09 04:08 51.03856 -9.74115 40116 ft 490 kts 287°
2026-05-09 04:09 51.06006 -9.84406 40116 ft 490 kts 287°
2026-05-09 04:09 51.08143 -9.94691 40116 ft 490 kts 287°
2026-05-09 04:10 51.10273 -10.04987 40124 ft 490 kts 287°
2026-05-09 04:10 51.12394 -10.15297 40124 ft 490 kts 287°
2026-05-09 04:11 51.14504 -10.25614 40121 ft 488 kts 287°
2026-05-09 04:11 51.16592 -10.35870 40132 ft 487 kts 287°
2026-05-09 04:12 51.18674 -10.46148 40132 ft 487 kts 287°
2026-05-09 04:12 51.20744 -10.56421 40133 ft 486 kts 287°
2026-05-09 04:13 51.22788 -10.66625 40129 ft 486 kts 287°
2026-05-09 04:13 51.24837 -10.76901 40141 ft 486 kts 287°
2026-05-09 04:14 51.26881 -10.87207 40140 ft 486 kts 287°
2026-05-09 04:14 51.28907 -10.97475 40141 ft 486 kts 287°
2026-05-09 04:15 51.30927 -11.07773 40147 ft 485 kts 287°
2026-05-09 04:15 51.32947 -11.18125 40146 ft 489 kts 287°
2026-05-09 04:16 51.34964 -11.28518 40146 ft 489 kts 287°
2026-05-09 04:16 51.36972 -11.38913 40154 ft 489 kts 286°
2026-05-09 04:17 51.38959 -11.49265 40151 ft 489 kts 286°
2026-05-09 04:17 51.40951 -11.59699 40151 ft 490 kts 286°
2026-05-09 04:18 51.42943 -11.70187 40163 ft 493 kts 286°
2026-05-09 04:18 51.44934 -11.80733 40166 ft 495 kts 286°
2026-05-09 04:19 51.46915 -11.91281 40159 ft 492 kts 285°
2026-05-09 04:19 51.48860 -12.01702 40176 ft 491 kts 286°
2026-05-09 04:20 51.50493 -12.10493 40181 ft 491 kts 286°
2026-05-09 04:20 51.52747 -12.22698 40177 ft 490 kts 286°
2026-05-09 04:21 51.54362 -12.31491 40186 ft 490 kts 285°
2026-05-09 04:22 51.57552 -12.48984 40186 ft 490 kts 285°
2026-05-09 04:22 51.59135 -12.57732 40185 ft 490 kts 285°
2026-05-09 04:23 51.61034 -12.68277 40198 ft 490 kts 285°
2026-05-09 04:23 51.62916 -12.78790 40197 ft 489 kts 285°
2026-05-09 04:24 51.64792 -12.89326 40204 ft 489 kts 285°
2026-05-09 04:24 51.66646 -12.99806 40211 ft 489 kts 285°
2026-05-09 04:25 51.68500 -13.10344 40213 ft 489 kts 285°
2026-05-09 04:25 51.70347 -13.20908 40215 ft 489 kts 285°
2026-05-09 04:26 51.72182 -13.31460 40225 ft 491 kts 285°
2026-05-09 04:26 51.74016 -13.42077 40225 ft 491 kts 285°
2026-05-09 04:27 51.75843 -13.52718 40228 ft 490 kts 285°
2026-05-09 04:27 51.77649 -13.63294 40227 ft 488 kts 285°
2026-05-09 04:28 51.79441 -13.73854 40239 ft 487 kts 285°
2026-05-09 04:28 51.81223 -13.84420 40238 ft 488 kts 285°
2026-05-09 04:29 51.83001 -13.95024 40241 ft 488 kts 285°
2026-05-09 04:29 51.84768 -14.05630 40249 ft 488 kts 285°
2026-05-09 04:30 51.86515 -14.16180 40254 ft 488 kts 285°
2026-05-09 04:30 51.88264 -14.26812 40255 ft 488 kts 285°
2026-05-09 04:31 51.90001 -14.37442 40260 ft 488 kts 285°
2026-05-09 04:31 51.91732 -14.48091 40265 ft 488 kts 285°
2026-05-09 04:32 51.93450 -14.58726 40265 ft 488 kts 285°
2026-05-09 04:32 51.95147 -14.69306 40276 ft 488 kts 285°
2026-05-09 04:33 51.96854 -14.80016 40276 ft 488 kts 285°
2026-05-09 04:33 51.98543 -14.90684 40281 ft 488 kts 285°
2026-05-09 04:34 51.99908 -15.01383 40290 ft 489 kts 275°
2026-05-09 04:34 52.00303 -15.12401 40290 ft 489 kts 273°
2026-05-09 04:35 52.00518 -15.23454 40288 ft 489 kts 272°
2026-05-09 04:35 52.00699 -15.34515 40291 ft 489 kts 273°
2026-05-09 04:36 52.00884 -15.45560 40293 ft 489 kts 272°
2026-05-09 04:36 52.01068 -15.56578 40292 ft 489 kts 273°
2026-05-09 04:37 52.01244 -15.67553 40301 ft 489 kts 272°
2026-05-09 04:37 52.01410 -15.78578 40303 ft 489 kts 273°
2026-05-09 04:38 52.01565 -15.89618 40308 ft 489 kts 272°
2026-05-09 04:38 52.01709 -16.00679 40309 ft 491 kts 273°
2026-05-09 04:39 52.01846 -16.11797 40309 ft 491 kts 272°
2026-05-09 04:39 52.01971 -16.22892 40308 ft 491 kts 273°
2026-05-09 04:40 52.02086 -16.33996 40319 ft 491 kts 272°
2026-05-09 04:40 52.02188 -16.45037 40319 ft 493 kts 273°
2026-05-09 04:41 52.02283 -16.56195 40324 ft 494 kts 272°
2026-05-09 04:41 52.02366 -16.67345 40322 ft 494 kts 273°
2026-05-09 04:42 52.02439 -16.78510 40325 ft 494 kts 272°
2026-05-09 04:42 52.02501 -16.89667 40324 ft 494 kts 272°
2026-05-09 04:43 52.02552 -17.00870 40332 ft 496 kts 272°
2026-05-09 04:43 52.02592 -17.12119 40339 ft 498 kts 272°
2026-05-09 04:44 52.02624 -17.23357 40337 ft 497 kts 273°
2026-05-09 04:44 52.02644 -17.34539 40339 ft 498 kts 272°
2026-05-09 04:45 52.02652 -17.45793 40338 ft 498 kts 272°
2026-05-09 04:45 52.02651 -17.57078 40339 ft 500 kts 273°
2026-05-09 04:46 52.02640 -17.68349 40349 ft 499 kts 272°
2026-05-09 04:46 52.02617 -17.79588 40352 ft 500 kts 272°
2026-05-09 04:47 52.02584 -17.90874 40347 ft 500 kts 273°
2026-05-09 04:47 52.02541 -18.02213 40357 ft 501 kts 272°
2026-05-09 04:48 52.02485 -18.13504 40361 ft 500 kts 273°
2026-05-09 04:48 52.02420 -18.24815 40363 ft 500 kts 272°
2026-05-09 04:49 52.02343 -18.36045 40362 ft 501 kts 273°
2026-05-09 04:49 52.02255 -18.47379 40361 ft 500 kts 272°
2026-05-09 04:50 52.02155 -18.58691 40369 ft 501 kts 272°
2026-05-09 04:50 52.02045 -18.69994 40368 ft 500 kts 272°
2026-05-09 04:51 52.01926 -18.81240 40371 ft 501 kts 272°
2026-05-09 04:51 52.01793 -18.92560 40376 ft 501 kts 272°
2026-05-09 04:52 52.01650 -19.03870 40379 ft 501 kts 272°
2026-05-09 04:52 52.01497 -19.15184 40381 ft 501 kts 272°
2026-05-09 04:53 52.01336 -19.26430 40380 ft 501 kts 272°
2026-05-09 04:53 52.01161 -19.37765 40384 ft 501 kts 272°
2026-05-09 04:54 52.00976 -19.49061 40382 ft 501 kts 272°
2026-05-09 04:54 52.00780 -19.60386 40385 ft 502 kts 272°
2026-05-09 04:55 52.00573 -19.71705 40383 ft 501 kts 271°
2026-05-09 04:55 52.00354 -19.83030 40387 ft 502 kts 271°
2026-05-09 04:56 52.00127 -19.94293 40387 ft 502 kts 271°
2026-05-09 04:56 52.00254 -20.05580 40390 ft 500 kts 276°
2026-05-09 04:57 52.00685 -20.16846 40395 ft 499 kts 277°
2026-05-09 04:57 52.01153 -20.28092 40405 ft 499 kts 277°
2026-05-09 04:58 52.01609 -20.39331 40396 ft 499 kts 277°
2026-05-09 04:58 52.02047 -20.50583 40401 ft 499 kts 277°
2026-05-09 04:59 52.02471 -20.61840 40413 ft 499 kts 277°
2026-05-09 04:59 52.02880 -20.73027 40411 ft 499 kts 277°
2026-05-09 05:00 52.03282 -20.84283 40415 ft 499 kts 277°
2026-05-09 05:00 52.03674 -20.95551 40415 ft 499 kts 277°
2026-05-09 05:01 52.04056 -21.06845 40418 ft 500 kts 277°
2026-05-09 05:01 52.04424 -21.18047 40424 ft 501 kts 277°
2026-05-09 05:02 52.04785 -21.29358 40426 ft 501 kts 276°
2026-05-09 05:02 52.05134 -21.40678 40428 ft 502 kts 277°
2026-05-09 05:03 52.05475 -21.52027 40426 ft 502 kts 277°
2026-05-09 05:03 52.05803 -21.63360 40432 ft 502 kts 277°
2026-05-09 05:04 52.06120 -21.74644 40437 ft 503 kts 277°
2026-05-09 05:04 52.06428 -21.86016 40436 ft 503 kts 277°
2026-05-09 05:05 52.06725 -21.97392 40440 ft 503 kts 277°
2026-05-09 05:05 52.07011 -22.08763 40444 ft 503 kts 277°
2026-05-09 05:06 52.07286 -22.20139 40453 ft 503 kts 277°
2026-05-09 05:06 52.07548 -22.31427 40452 ft 503 kts 277°
2026-05-09 05:07 52.07801 -22.42788 40450 ft 503 kts 277°
2026-05-09 05:07 52.08002 -22.52257 40445 ft 502 kts 277°
2026-05-09 05:08 52.08230 -22.63437 40456 ft 500 kts 277°
2026-05-09 05:08 52.08451 -22.74745 40457 ft 500 kts 277°
2026-05-09 05:09 52.08662 -22.86049 40460 ft 500 kts 277°
2026-05-09 05:09 52.08862 -22.97334 40464 ft 500 kts 277°
2026-05-09 05:10 52.09050 -23.08632 40468 ft 500 kts 277°
2026-05-09 05:10 52.09227 -23.19872 40453 ft 500 kts 277°
2026-05-09 05:11 52.09394 -23.31183 40468 ft 500 kts 277°
2026-05-09 05:11 52.09550 -23.42499 40482 ft 500 kts 277°
2026-05-09 05:12 52.09695 -23.53769 40481 ft 500 kts 277°
2026-05-09 05:12 52.09829 -23.65085 40471 ft 500 kts 277°
2026-05-09 05:13 52.09953 -23.76438 40475 ft 500 kts 277°
2026-05-09 05:13 52.10066 -23.87703 40482 ft 501 kts 277°
2026-05-09 05:14 52.10169 -23.99043 40486 ft 501 kts 277°
2026-05-09 05:14 52.10260 -24.10407 40487 ft 502 kts 277°
2026-05-09 05:15 52.10341 -24.21776 40486 ft 502 kts 277°
2026-05-09 05:15 52.10410 -24.33055 40492 ft 502 kts 277°
2026-05-09 05:16 52.10469 -24.44415 40492 ft 503 kts 277°
2026-05-09 05:16 52.10517 -24.55809 40500 ft 503 kts 277°
2026-05-09 05:17 52.10554 -24.67184 40497 ft 503 kts 277°
2026-05-09 05:17 52.10580 -24.78572 40481 ft 503 kts 277°
2026-05-09 05:18 52.10594 -24.89953 40503 ft 503 kts 277°
2026-05-09 05:18 52.10598 -25.01345 40508 ft 503 kts 277°
2026-05-09 05:19 52.10592 -25.12710 40506 ft 503 kts 277°
2026-05-09 05:19 52.10575 -25.24104 40508 ft 503 kts 277°
2026-05-09 05:20 52.10546 -25.35414 40508 ft 503 kts 277°
2026-05-09 05:20 52.10506 -25.46780 40516 ft 503 kts 277°
2026-05-09 05:21 52.10456 -25.58168 40518 ft 503 kts 277°
2026-05-09 05:21 52.10395 -25.69583 40516 ft 504 kts 277°
2026-05-09 05:22 52.10323 -25.80978 40521 ft 504 kts 277°
2026-05-09 05:22 52.10239 -25.92374 40522 ft 504 kts 277°
2026-05-09 05:23 52.10144 -26.03683 40523 ft 503 kts 277°
2026-05-09 05:23 52.10038 -26.15067 40525 ft 503 kts 277°
2026-05-09 05:24 52.09921 -26.26476 40534 ft 503 kts 277°
2026-05-09 05:24 52.09795 -26.37781 40531 ft 503 kts 277°
2026-05-09 05:25 52.09657 -26.49173 40524 ft 504 kts 277°
2026-05-09 05:25 52.09429 -26.66253 40548 ft 504 kts 277°
2026-05-09 05:26 52.09263 -26.77661 40544 ft 504 kts 277°
2026-05-09 05:26 52.09086 -26.89064 40542 ft 504 kts 277°
2026-05-09 05:27 52.08900 -27.00397 40523 ft 504 kts 276°
2026-05-09 05:27 52.08701 -27.11798 40523 ft 505 kts 276°
2026-05-09 05:28 52.08490 -27.23218 40548 ft 504 kts 276°
2026-05-09 05:28 52.08269 -27.34618 40547 ft 504 kts 276°
2026-05-09 05:29 52.08037 -27.46029 40544 ft 504 kts 276°
2026-05-09 05:29 52.07796 -27.57350 40555 ft 504 kts 276°
2026-05-09 05:30 52.07543 -27.68745 40551 ft 505 kts 276°
2026-05-09 05:30 52.07277 -27.80172 40556 ft 505 kts 276°
2026-05-09 05:31 52.07001 -27.91576 40554 ft 505 kts 276°
2026-05-09 05:31 52.06713 -28.02997 40560 ft 505 kts 276°
2026-05-09 05:32 52.06416 -28.14350 40552 ft 506 kts 275°
2026-05-09 05:32 52.06107 -28.25763 40551 ft 506 kts 275°
2026-05-09 05:33 52.05786 -28.37177 40559 ft 505 kts 275°
2026-05-09 05:33 52.05454 -28.48590 40562 ft 505 kts 275°
2026-05-09 05:34 52.05112 -28.60004 40559 ft 505 kts 275°
2026-05-09 05:34 52.04761 -28.71343 40566 ft 505 kts 275°
2026-05-09 05:35 52.04396 -28.82740 40561 ft 505 kts 274°
2026-05-09 05:35 52.04020 -28.94169 40563 ft 505 kts 274°
2026-05-09 05:36 52.03634 -29.05570 40568 ft 505 kts 274°
2026-05-09 05:36 52.03236 -29.16967 40549 ft 505 kts 274°
2026-05-09 05:37 52.02828 -29.28345 40566 ft 504 kts 274°
2026-05-09 05:37 52.02411 -29.39650 40569 ft 504 kts 274°
2026-05-09 05:38 52.01982 -29.51004 40573 ft 502 kts 273°
2026-05-09 05:38 52.01544 -29.62307 40571 ft 501 kts 273°
2026-05-09 05:39 52.01096 -29.73604 40560 ft 501 kts 273°
2026-05-09 05:39 52.00637 -29.84895 40565 ft 500 kts 273°
2026-05-09 05:40 52.00172 -29.96071 40570 ft 500 kts 273°
2026-05-09 05:40 51.99658 -30.07332 40570 ft 501 kts 271°
2026-05-09 05:41 51.98998 -30.18593 40565 ft 501 kts 271°
2026-05-09 05:41 51.98311 -30.29861 40563 ft 501 kts 271°
2026-05-09 05:42 51.97635 -30.41089 40567 ft 500 kts 271°
2026-05-09 05:42 51.96961 -30.52314 40568 ft 500 kts 271°
2026-05-09 05:43 51.96284 -30.63472 40564 ft 500 kts 271°
2026-05-09 05:43 51.95591 -30.74698 40562 ft 499 kts 271°
2026-05-09 05:44 51.94887 -30.85899 40567 ft 498 kts 270°
2026-05-09 05:44 51.94175 -30.97062 40568 ft 497 kts 270°
2026-05-09 05:45 51.93458 -31.08139 40568 ft 497 kts 270°
2026-05-09 05:45 51.92726 -31.19295 40571 ft 497 kts 270°
2026-05-09 05:46 51.91983 -31.30434 40567 ft 497 kts 270°
2026-05-09 05:46 51.91236 -31.41484 40567 ft 497 kts 270°
2026-05-09 05:47 51.90473 -31.52605 40567 ft 497 kts 270°
2026-05-09 05:47 51.89699 -31.63729 40568 ft 497 kts 270°
2026-05-09 05:48 51.88916 -31.74842 40564 ft 497 kts 270°
2026-05-09 05:48 51.88121 -31.85946 40563 ft 494 kts 270°
2026-05-09 05:49 51.87320 -31.96959 40569 ft 490 kts 270°
2026-05-09 05:49 51.86521 -32.07855 40568 ft 490 kts 270°
2026-05-09 05:50 51.85705 -32.18863 40571 ft 490 kts 270°
2026-05-09 05:50 51.84885 -32.29754 40569 ft 490 kts 269°
2026-05-09 05:51 51.84051 -32.40685 40569 ft 489 kts 269°
2026-05-09 05:51 51.83207 -32.51597 40570 ft 489 kts 269°
2026-05-09 05:52 51.82355 -32.62507 40567 ft 489 kts 269°
2026-05-09 05:52 51.81494 -32.73388 40567 ft 489 kts 269°
2026-05-09 05:53 51.80627 -32.84216 40545 ft 489 kts 269°
2026-05-09 05:53 51.79743 -32.95123 40571 ft 488 kts 269°
2026-05-09 05:54 51.79003 -33.04160 40550 ft 488 kts 269°
2026-05-09 05:54 51.78103 -33.15026 40565 ft 488 kts 269°
2026-05-09 05:55 51.77195 -33.25875 40564 ft 488 kts 269°
2026-05-09 05:55 51.76275 -33.36734 40536 ft 488 kts 268°
2026-05-09 05:56 51.75346 -33.47587 40564 ft 488 kts 268°
2026-05-09 05:56 51.74405 -33.58449 40562 ft 488 kts 268°
2026-05-09 05:57 51.73460 -33.69243 40564 ft 488 kts 268°
2026-05-09 05:57 51.72499 -33.80102 40563 ft 489 kts 268°
2026-05-09 05:58 51.71529 -33.90938 40548 ft 488 kts 268°
2026-05-09 05:58 51.70547 -34.01798 40561 ft 488 kts 268°
2026-05-09 05:59 51.69563 -34.12556 40557 ft 488 kts 268°
2026-05-09 05:59 51.68562 -34.23400 40541 ft 488 kts 267°
2026-05-09 06:00 51.67553 -34.34220 40559 ft 487 kts 267°
2026-05-09 06:00 51.66540 -34.44962 40545 ft 487 kts 267°
2026-05-09 06:01 51.65512 -34.55747 40548 ft 486 kts 267°
2026-05-09 06:01 51.64477 -34.66505 40553 ft 486 kts 267°
2026-05-09 06:02 51.63433 -34.77258 40545 ft 486 kts 266°
2026-05-09 06:02 51.62383 -34.87969 40546 ft 486 kts 266°
2026-05-09 06:03 51.61319 -34.98706 40546 ft 485 kts 266°
2026-05-09 06:03 51.60247 -35.09418 40547 ft 484 kts 266°
2026-05-09 06:04 51.59174 -35.20044 40542 ft 484 kts 266°
2026-05-09 06:04 51.58085 -35.30732 40541 ft 484 kts 266°
2026-05-09 06:05 51.56988 -35.41397 40522 ft 484 kts 266°
2026-05-09 06:05 51.55881 -35.52059 40537 ft 482 kts 265°
2026-05-09 06:06 51.54768 -35.62672 40532 ft 481 kts 265°
2026-05-09 06:06 51.53650 -35.73255 40532 ft 481 kts 265°
2026-05-09 06:07 51.52525 -35.83797 40524 ft 481 kts 265°
2026-05-09 06:07 51.51382 -35.94417 40527 ft 481 kts 265°
2026-05-09 06:08 51.50237 -36.04967 40518 ft 480 kts 264°
2026-05-09 06:08 51.49079 -36.15529 40513 ft 480 kts 264°
2026-05-09 06:09 51.47912 -36.26091 40519 ft 480 kts 264°
2026-05-09 06:09 51.46735 -36.36646 40508 ft 480 kts 264°
2026-05-09 06:10 51.45558 -36.47120 40511 ft 480 kts 264°
2026-05-09 06:10 51.44362 -36.57670 40505 ft 480 kts 264°
2026-05-09 06:11 51.43156 -36.68222 40505 ft 480 kts 264°
2026-05-09 06:11 51.41943 -36.78738 40503 ft 480 kts 263°
2026-05-09 06:12 51.40722 -36.89247 40503 ft 480 kts 263°
2026-05-09 06:12 51.39488 -36.99776 40490 ft 480 kts 263°
2026-05-09 06:13 51.38248 -37.10271 40495 ft 479 kts 263°
2026-05-09 06:13 51.37007 -37.20690 40487 ft 479 kts 263°
2026-05-09 06:14 51.35749 -37.31169 40487 ft 479 kts 263°
2026-05-09 06:14 51.34480 -37.41652 40481 ft 479 kts 263°
2026-05-09 06:15 51.33204 -37.52111 40479 ft 479 kts 263°
2026-05-09 06:15 51.31919 -37.62556 40470 ft 477 kts 262°
2026-05-09 06:16 51.30636 -37.72915 40471 ft 477 kts 262°
2026-05-09 06:16 51.29339 -37.83303 40473 ft 476 kts 262°
2026-05-09 06:17 51.28039 -37.93636 40472 ft 474 kts 262°
2026-05-09 06:17 51.26726 -38.03996 40450 ft 474 kts 262°
2026-05-09 06:18 51.25418 -38.14241 40460 ft 473 kts 262°
2026-05-09 06:18 51.24094 -38.24534 40449 ft 473 kts 262°
2026-05-09 06:19 51.22761 -38.34820 40445 ft 473 kts 262°
2026-05-09 06:19 51.21426 -38.45049 40441 ft 473 kts 261°
2026-05-09 06:20 51.20074 -38.55328 40438 ft 472 kts 261°
2026-05-09 06:20 51.18718 -38.65559 40431 ft 471 kts 261°
2026-05-09 06:21 51.17355 -38.75782 40434 ft 472 kts 261°
2026-05-09 06:21 51.15979 -38.86023 40428 ft 472 kts 261°
2026-05-09 06:22 51.14603 -38.96196 40422 ft 470 kts 261°
2026-05-09 06:22 51.13218 -39.06344 40417 ft 467 kts 261°
2026-05-09 06:23 51.11835 -39.16423 40419 ft 465 kts 261°
2026-05-09 06:23 51.10449 -39.26475 40409 ft 465 kts 261°
2026-05-09 06:24 51.09052 -39.36534 40408 ft 465 kts 261°
2026-05-09 06:24 51.07655 -39.46509 40396 ft 465 kts 260°
2026-05-09 06:25 51.06239 -39.56550 40393 ft 463 kts 259°
2026-05-09 06:25 51.04823 -39.66530 40390 ft 462 kts 259°
2026-05-09 06:26 51.03396 -39.76523 40380 ft 463 kts 259°
2026-05-09 06:26 51.01961 -39.86491 40376 ft 463 kts 258°
2026-05-09 06:27 51.00514 -39.96476 40360 ft 463 kts 258°
2026-05-09 06:27 50.99063 -40.06378 40374 ft 462 kts 257°
2026-05-09 06:28 50.97565 -40.16259 40366 ft 459 kts 257°
2026-05-09 06:28 50.96059 -40.26101 40364 ft 458 kts 257°
2026-05-09 06:29 50.94561 -40.35874 40355 ft 459 kts 257°
2026-05-09 06:29 50.93047 -40.45711 40352 ft 458 kts 257°
2026-05-09 06:30 50.91531 -40.55500 40342 ft 455 kts 256°
2026-05-09 06:30 50.90011 -40.65263 40342 ft 455 kts 256°
2026-05-09 06:31 50.88487 -40.74987 40328 ft 456 kts 256°
2026-05-09 06:31 50.86960 -40.84672 40326 ft 455 kts 256°
2026-05-09 06:32 50.85415 -40.94414 40324 ft 455 kts 256°
2026-05-09 06:33 50.83089 -41.08981 40318 ft 453 kts 255°
2026-05-09 06:33 50.81532 -41.18659 40320 ft 454 kts 255°
2026-05-09 06:34 50.79193 -41.33089 40314 ft 454 kts 254°
2026-05-09 06:34 50.77621 -41.42724 40310 ft 453 kts 254°
2026-05-09 06:35 50.76040 -41.52360 40303 ft 452 kts 254°
2026-05-09 06:35 50.74447 -41.61993 40303 ft 453 kts 254°
2026-05-09 06:36 50.72852 -41.71604 40292 ft 453 kts 254°
2026-05-09 06:36 50.71256 -41.81158 40287 ft 451 kts 254°
2026-05-09 06:37 50.69642 -41.90765 40283 ft 451 kts 254°
2026-05-09 06:37 50.68038 -42.00273 40279 ft 452 kts 253°
2026-05-09 06:38 50.66412 -42.09852 40271 ft 451 kts 253°
2026-05-09 06:38 50.64777 -42.19431 40265 ft 451 kts 253°
2026-05-09 06:39 50.63143 -42.28940 40259 ft 452 kts 253°
2026-05-09 06:39 50.61493 -42.38500 40264 ft 452 kts 253°
2026-05-09 06:40 50.59838 -42.48044 40246 ft 450 kts 253°
2026-05-09 06:40 50.58187 -42.57516 40241 ft 450 kts 253°
2026-05-09 06:41 50.56523 -42.67000 40235 ft 450 kts 253°
2026-05-09 06:41 50.54850 -42.76490 40230 ft 450 kts 253°
2026-05-09 06:42 50.53450 -42.84391 40234 ft 450 kts 252°
2026-05-09 06:42 50.51490 -42.95396 40227 ft 449 kts 252°
2026-05-09 06:43 50.50084 -43.03244 40223 ft 448 kts 252°
2026-05-09 06:43 50.48387 -43.12669 40219 ft 447 kts 252°
2026-05-09 06:44 50.46686 -43.22076 40217 ft 448 kts 252°
2026-05-09 06:44 50.44976 -43.31480 40212 ft 448 kts 252°
2026-05-09 06:45 50.43262 -43.40868 40208 ft 446 kts 252°
2026-05-09 06:45 50.41544 -43.50226 40188 ft 447 kts 251°
2026-05-09 06:46 50.39827 -43.59522 40194 ft 447 kts 251°
2026-05-09 06:46 50.38090 -43.68883 40177 ft 446 kts 251°
2026-05-09 06:47 50.36348 -43.78231 40177 ft 446 kts 251°
2026-05-09 06:47 50.34596 -43.87573 40177 ft 447 kts 250°
2026-05-09 06:48 50.32836 -43.96914 40168 ft 448 kts 251°
2026-05-09 06:48 50.31067 -44.06258 40159 ft 447 kts 251°
2026-05-09 06:49 50.29306 -44.15520 40159 ft 447 kts 250°
2026-05-09 06:49 50.27522 -44.24856 40148 ft 447 kts 250°
2026-05-09 06:50 50.25733 -44.34169 40138 ft 448 kts 250°
2026-05-09 06:50 50.23930 -44.43503 40132 ft 447 kts 250°
2026-05-09 06:51 50.22123 -44.52819 40133 ft 448 kts 250°
2026-05-09 06:51 50.20323 -44.62056 40126 ft 447 kts 250°
2026-05-09 06:52 50.18501 -44.71359 40124 ft 447 kts 250°
2026-05-09 06:52 50.16674 -44.80637 40102 ft 446 kts 249°
2026-05-09 06:53 50.14859 -44.89815 40102 ft 445 kts 249°
2026-05-09 06:53 50.13018 -44.99081 40100 ft 445 kts 249°
2026-05-09 06:54 50.11189 -45.08240 40095 ft 445 kts 249°
2026-05-09 06:54 50.09340 -45.17452 40083 ft 445 kts 249°
2026-05-09 06:55 50.07488 -45.26643 40075 ft 444 kts 249°
2026-05-09 06:55 50.05632 -45.35805 40067 ft 444 kts 249°
2026-05-09 06:56 50.03769 -45.44966 40067 ft 443 kts 249°
2026-05-09 06:56 50.01912 -45.54051 40057 ft 443 kts 248°
2026-05-09 06:57 50.00036 -45.63185 40056 ft 443 kts 248°
2026-05-09 06:57 49.98151 -45.72326 40040 ft 444 kts 248°
2026-05-09 06:58 49.96259 -45.81454 40040 ft 444 kts 248°
2026-05-09 06:58 49.94368 -45.90540 40038 ft 444 kts 248°
2026-05-09 06:59 49.92462 -45.99656 40040 ft 444 kts 248°
2026-05-09 06:59 49.90550 -46.08757 40003 ft 444 kts 248°
2026-05-09 07:00 49.88635 -46.17830 40020 ft 444 kts 248°
2026-05-09 07:00 49.86709 -46.26917 40012 ft 443 kts 247°
2026-05-09 07:01 49.84774 -46.36007 40012 ft 443 kts 247°
2026-05-09 07:01 49.82833 -46.45079 40002 ft 443 kts 247°
2026-05-09 07:02 49.80886 -46.54146 39988 ft 443 kts 247°
2026-05-09 07:02 49.78929 -46.63213 39982 ft 444 kts 247°
2026-05-09 07:03 49.76962 -46.72289 40000 ft 445 kts 246°
2026-05-09 07:03 49.75006 -46.81279 39960 ft 443 kts 246°
2026-05-09 07:04 49.73030 -46.90321 39964 ft 442 kts 246°
2026-05-09 07:04 49.71052 -46.99323 39946 ft 442 kts 246°
2026-05-09 07:05 49.69095 -47.08211 39945 ft 434 kts 246°
2026-05-09 07:05 49.67151 -47.16998 39933 ft 430 kts 246°
2026-05-09 07:06 49.65204 -47.25738 39933 ft 430 kts 246°
2026-05-09 07:06 49.63249 -47.34481 39926 ft 430 kts 246°
2026-05-09 07:07 49.61291 -47.43210 39914 ft 430 kts 246°
2026-05-09 07:07 49.59330 -47.51921 39906 ft 430 kts 245°
2026-05-09 07:08 49.57372 -47.60578 39893 ft 431 kts 245°
2026-05-09 07:08 49.55392 -47.69295 39886 ft 431 kts 245°
2026-05-09 07:09 49.53407 -47.78003 39904 ft 431 kts 245°
2026-05-09 07:09 49.51409 -47.86725 39882 ft 433 kts 245°
2026-05-09 07:10 49.49408 -47.95428 39883 ft 435 kts 245°
2026-05-09 07:10 49.47380 -48.04211 39870 ft 436 kts 245°
2026-05-09 07:11 49.45349 -48.12980 39871 ft 436 kts 244°
2026-05-09 07:11 49.43307 -48.21757 39854 ft 436 kts 244°
2026-05-09 07:12 49.41257 -48.30534 39850 ft 436 kts 244°
2026-05-09 07:12 49.39201 -48.39294 39848 ft 437 kts 244°
2026-05-09 07:13 49.37132 -48.48076 39845 ft 438 kts 244°
2026-05-09 07:13 49.35056 -48.56854 39840 ft 438 kts 244°
2026-05-09 07:14 49.32971 -48.65635 39829 ft 438 kts 244°
2026-05-09 07:14 49.30896 -48.74337 39822 ft 438 kts 244°
2026-05-09 07:15 49.28799 -48.83098 39842 ft 437 kts 244°
2026-05-09 07:15 49.26702 -48.91827 39817 ft 435 kts 244°
2026-05-09 07:16 49.24602 -49.00527 39803 ft 434 kts 244°
2026-05-09 07:16 49.22513 -49.09150 39794 ft 434 kts 244°
2026-05-09 07:17 49.20401 -49.17828 39788 ft 434 kts 244°
2026-05-09 07:17 49.18295 -49.26458 39789 ft 431 kts 244°
2026-05-09 07:18 49.16200 -49.35013 39790 ft 429 kts 244°
2026-05-09 07:18 49.14110 -49.43501 39774 ft 429 kts 244°
2026-05-09 07:19 49.12000 -49.52037 39772 ft 429 kts 244°
2026-05-09 07:19 49.09891 -49.60541 39765 ft 429 kts 244°
2026-05-09 07:20 49.07779 -49.69033 39766 ft 426 kts 244°
2026-05-09 07:20 49.05676 -49.77454 39760 ft 424 kts 243°
2026-05-09 07:21 49.03568 -49.85855 39757 ft 423 kts 243°
2026-05-09 07:21 49.01480 -49.94151 39744 ft 422 kts 243°
2026-05-09 07:22 48.99376 -50.02493 39744 ft 422 kts 243°
2026-05-09 07:22 48.97356 -50.10871 39735 ft 421 kts 244°
2026-05-09 07:23 48.95378 -50.19209 39736 ft 420 kts 244°
2026-05-09 07:23 48.93375 -50.27560 39728 ft 420 kts 244°
2026-05-09 07:24 48.91352 -50.35915 39728 ft 419 kts 244°
2026-05-09 07:24 48.89326 -50.44235 39726 ft 419 kts 244°
2026-05-09 07:25 48.87307 -50.52499 39726 ft 419 kts 243°
2026-05-09 07:25 48.85272 -50.60797 39714 ft 419 kts 243°
2026-05-09 07:26 48.83232 -50.69088 39712 ft 419 kts 243°
2026-05-09 07:26 48.81183 -50.77386 39709 ft 419 kts 243°
2026-05-09 07:27 48.79478 -50.84264 39716 ft 418 kts 243°
2026-05-09 07:27 48.77437 -50.92479 39717 ft 416 kts 242°
2026-05-09 07:28 48.75389 -51.00686 39702 ft 414 kts 242°
2026-05-09 07:28 48.73359 -51.08787 39697 ft 414 kts 242°
2026-05-09 07:29 48.71305 -51.16953 39697 ft 414 kts 242°
2026-05-09 07:29 48.69248 -51.25105 39694 ft 414 kts 242°
2026-05-09 07:30 48.67202 -51.33186 39697 ft 414 kts 242°
2026-05-09 07:30 48.65137 -51.41312 39691 ft 414 kts 242°
2026-05-09 07:31 48.63066 -51.49430 39688 ft 414 kts 242°
2026-05-09 07:31 48.60988 -51.57548 39690 ft 414 kts 242°
2026-05-09 07:32 48.58910 -51.65639 39688 ft 413 kts 242°
2026-05-09 07:32 48.56817 -51.73759 39730 ft 414 kts 241°
2026-05-09 07:33 48.53681 -51.85866 39682 ft 415 kts 241°
2026-05-09 07:34 48.51567 -51.93997 39679 ft 415 kts 241°
2026-05-09 07:34 48.49455 -52.02117 39678 ft 416 kts 241°
2026-05-09 07:35 48.47465 -52.10334 39678 ft 417 kts 243°
2026-05-09 07:35 48.45524 -52.18584 39698 ft 417 kts 242°
2026-05-09 07:36 48.43571 -52.26777 39677 ft 419 kts 242°
2026-05-09 07:36 48.41583 -52.35010 39674 ft 419 kts 242°
2026-05-09 07:37 48.39581 -52.43250 39679 ft 419 kts 242°
2026-05-09 07:37 48.37571 -52.51491 39670 ft 419 kts 242°
2026-05-09 07:38 48.35561 -52.59705 39669 ft 418 kts 242°
2026-05-09 07:38 48.33543 -52.67916 39671 ft 420 kts 242°
2026-05-09 07:39 48.31513 -52.76151 39668 ft 420 kts 242°
2026-05-09 07:39 48.29488 -52.84337 39655 ft 420 kts 242°
2026-05-09 07:40 48.27448 -52.92555 39655 ft 420 kts 241°
2026-05-09 07:40 48.25401 -53.00766 39649 ft 420 kts 241°
2026-05-09 07:41 48.23347 -53.08978 39653 ft 421 kts 241°
2026-05-09 07:41 48.21275 -53.17225 39650 ft 422 kts 241°
2026-05-09 07:42 48.19214 -53.25408 39651 ft 422 kts 241°
2026-05-09 07:42 48.17134 -53.33639 39649 ft 422 kts 241°
2026-05-09 07:43 48.15047 -53.41860 39652 ft 422 kts 241°
2026-05-09 07:43 48.12950 -53.50089 39661 ft 423 kts 241°
2026-05-09 07:44 48.10831 -53.58363 39654 ft 427 kts 241°
2026-05-09 07:44 48.08713 -53.66620 39656 ft 427 kts 241°
2026-05-09 07:45 48.06571 -53.74944 39657 ft 427 kts 241°
2026-05-09 07:45 48.04428 -53.83241 39660 ft 427 kts 241°
2026-05-09 07:46 48.02282 -53.91513 39674 ft 427 kts 241°
2026-05-09 07:46 48.00135 -53.99753 39667 ft 428 kts 241°
2026-05-09 07:47 47.97969 -54.08044 39668 ft 428 kts 241°
2026-05-09 07:47 47.95799 -54.16323 39680 ft 428 kts 241°
2026-05-09 07:48 47.93622 -54.24595 39684 ft 428 kts 241°
2026-05-09 07:48 47.91440 -54.32859 39747 ft 428 kts 241°
2026-05-09 07:49 47.89233 -54.41170 39697 ft 433 kts 241°
2026-05-09 07:49 47.87025 -54.49470 39700 ft 434 kts 241°
2026-05-09 07:50 47.84794 -54.57837 39699 ft 434 kts 241°
2026-05-09 07:50 47.82557 -54.66192 39704 ft 434 kts 241°
2026-05-09 07:51 47.80315 -54.74535 39707 ft 434 kts 241°
2026-05-09 07:51 47.78060 -54.82891 39704 ft 434 kts 241°
2026-05-09 07:52 47.75820 -54.91163 39704 ft 434 kts 241°
2026-05-09 07:52 47.73553 -54.99505 39685 ft 434 kts 241°
2026-05-09 07:53 47.71286 -55.07824 39702 ft 434 kts 241°
2026-05-09 07:53 47.69023 -55.16089 39729 ft 434 kts 241°
2026-05-09 07:54 47.66727 -55.24444 39675 ft 438 kts 242°
2026-05-09 07:54 47.64431 -55.32777 39671 ft 439 kts 242°
2026-05-09 07:55 47.62116 -55.41149 39671 ft 439 kts 242°
2026-05-09 07:55 47.59795 -55.49515 39655 ft 438 kts 241°
2026-05-09 07:56 47.57468 -55.57873 39658 ft 438 kts 242°
2026-05-09 07:56 47.55133 -55.66228 39647 ft 439 kts 242°
2026-05-09 07:57 47.52793 -55.74573 39646 ft 439 kts 242°
2026-05-09 07:57 47.50457 -55.82873 39644 ft 439 kts 242°
2026-05-09 07:58 47.48102 -55.91211 39659 ft 439 kts 241°
2026-05-09 07:58 47.45740 -55.99547 39698 ft 440 kts 242°
2026-05-09 07:59 47.43373 -56.07867 39668 ft 443 kts 242°
2026-05-09 07:59 47.40974 -56.16276 39693 ft 444 kts 242°
2026-05-09 08:00 47.38568 -56.24680 39694 ft 444 kts 242°
2026-05-09 08:00 47.36161 -56.33062 39709 ft 443 kts 242°
2026-05-09 08:01 47.33761 -56.41385 39706 ft 444 kts 242°
2026-05-09 08:01 47.31335 -56.49769 39730 ft 444 kts 242°
2026-05-09 08:02 47.28903 -56.58150 39730 ft 444 kts 242°
2026-05-09 08:02 47.26465 -56.66518 39746 ft 444 kts 242°
2026-05-09 08:03 47.24037 -56.74827 39746 ft 444 kts 242°
2026-05-09 08:03 47.21582 -56.83196 39779 ft 445 kts 242°
2026-05-09 08:04 47.19118 -56.91569 39784 ft 446 kts 242°
2026-05-09 08:04 47.16647 -56.99938 39783 ft 446 kts 242°
2026-05-09 08:05 47.14180 -57.08264 39796 ft 446 kts 242°
2026-05-09 08:05 47.11685 -57.16656 39800 ft 446 kts 242°
2026-05-09 08:06 47.09209 -57.24957 39804 ft 446 kts 242°
2026-05-09 08:06 47.06706 -57.33322 39804 ft 447 kts 242°
2026-05-09 08:07 47.04199 -57.41668 39808 ft 447 kts 242°
2026-05-09 08:07 47.01691 -57.49993 39809 ft 447 kts 242°
2026-05-09 08:08 46.99188 -57.58273 39818 ft 446 kts 242°
2026-05-09 08:08 46.96664 -57.66593 39814 ft 448 kts 242°
2026-05-09 08:09 46.94123 -57.74942 39835 ft 449 kts 242°
2026-05-09 08:09 46.91575 -57.83287 39836 ft 449 kts 242°
2026-05-09 08:10 46.89037 -57.91572 39841 ft 449 kts 242°
2026-05-09 08:10 46.86474 -57.99910 39832 ft 449 kts 242°
2026-05-09 08:11 46.83907 -58.08234 39839 ft 449 kts 242°
2026-05-09 08:11 46.81345 -58.16515 39851 ft 449 kts 242°
2026-05-09 08:12 46.77479 -58.28959 39843 ft 449 kts 242°
2026-05-09 08:12 46.74890 -58.37254 39882 ft 449 kts 242°
2026-05-09 08:13 46.72291 -58.45559 39858 ft 451 kts 242°
2026-05-09 08:13 46.70118 -58.52481 39852 ft 452 kts 242°
2026-05-09 08:14 46.67075 -58.62143 39859 ft 452 kts 242°
2026-05-09 08:14 46.64874 -58.69108 39861 ft 451 kts 242°
2026-05-09 08:15 46.62260 -58.77358 39870 ft 452 kts 242°
2026-05-09 08:15 46.59625 -58.85643 39872 ft 451 kts 242°
2026-05-09 08:16 46.56979 -58.93938 39871 ft 451 kts 242°
2026-05-09 08:16 46.54330 -59.02216 39870 ft 451 kts 242°
2026-05-09 08:17 46.51670 -59.10502 39871 ft 451 kts 242°
2026-05-09 08:17 46.49025 -59.18711 39879 ft 452 kts 242°
2026-05-09 08:18 46.46356 -59.26972 39877 ft 452 kts 242°
2026-05-09 08:18 46.43676 -59.35239 39879 ft 453 kts 242°
2026-05-09 08:19 46.40991 -59.43496 39879 ft 452 kts 242°
2026-05-09 08:19 46.38306 -59.51726 39877 ft 452 kts 242°
2026-05-09 08:20 46.35612 -59.59958 39872 ft 452 kts 242°
2026-05-09 08:20 46.32915 -59.68173 39874 ft 452 kts 242°
2026-05-09 08:21 46.30212 -59.76379 39874 ft 452 kts 242°
2026-05-09 08:21 46.27502 -59.84579 39875 ft 451 kts 242°
2026-05-09 08:22 46.24808 -59.92708 39880 ft 451 kts 242°
2026-05-09 08:22 46.22086 -60.00894 39888 ft 453 kts 242°
2026-05-09 08:23 46.19355 -60.09082 39890 ft 453 kts 242°
2026-05-09 08:23 46.16611 -60.17285 39886 ft 453 kts 242°
2026-05-09 08:24 46.13877 -60.25432 39884 ft 453 kts 242°
2026-05-09 08:24 46.11110 -60.33650 39884 ft 453 kts 242°
2026-05-09 08:25 46.08367 -60.41772 39884 ft 453 kts 242°
2026-05-09 08:25 46.05603 -60.49930 39884 ft 453 kts 242°
2026-05-09 08:26 46.02841 -60.58059 39884 ft 453 kts 242°
2026-05-09 08:26 46.00065 -60.66200 39888 ft 453 kts 242°
2026-05-09 08:27 45.97282 -60.74342 39890 ft 453 kts 242°
2026-05-09 08:27 45.94496 -60.82465 39893 ft 453 kts 242°
2026-05-09 08:28 45.91718 -60.90539 39891 ft 453 kts 242°
2026-05-09 08:28 45.88925 -60.98632 39892 ft 452 kts 242°
2026-05-09 08:29 45.86122 -61.06731 39897 ft 452 kts 242°
2026-05-09 08:29 45.83319 -61.14804 39906 ft 452 kts 242°
2026-05-09 08:30 45.80526 -61.22826 39907 ft 452 kts 242°
2026-05-09 08:30 45.77704 -61.30903 39918 ft 452 kts 242°
2026-05-09 08:31 45.74886 -61.38947 39932 ft 452 kts 242°
2026-05-09 08:31 45.72057 -61.46999 39927 ft 452 kts 242°
2026-05-09 08:32 45.69228 -61.55025 39926 ft 452 kts 242°
2026-05-09 08:33 45.64985 -61.67018 39927 ft 452 kts 242°
2026-05-09 08:33 45.62138 -61.75035 39927 ft 452 kts 242°
2026-05-09 08:34 45.59280 -61.83061 39931 ft 452 kts 242°
2026-05-09 08:34 45.56421 -61.91064 39934 ft 452 kts 242°
2026-05-09 08:35 45.53559 -61.99053 39932 ft 452 kts 242°
2026-05-09 08:35 45.50690 -62.07034 39936 ft 452 kts 242°
2026-05-09 08:36 45.47837 -62.14949 39941 ft 452 kts 242°
2026-05-09 08:36 45.44952 -62.22932 39936 ft 453 kts 242°
2026-05-09 08:37 45.42064 -62.30898 39940 ft 453 kts 242°
2026-05-09 08:37 45.39167 -62.38867 39940 ft 453 kts 242°
2026-05-09 08:38 45.36280 -62.46784 39944 ft 453 kts 242°
2026-05-09 08:38 45.33376 -62.54723 39942 ft 452 kts 242°
2026-05-09 08:39 45.30461 -62.62670 39948 ft 452 kts 242°
2026-05-09 08:39 45.27541 -62.70606 39947 ft 453 kts 242°
2026-05-09 08:40 45.24639 -62.78472 39948 ft 452 kts 242°
2026-05-09 08:40 45.21718 -62.86365 39949 ft 452 kts 242°
2026-05-09 08:41 45.18785 -62.94271 39946 ft 453 kts 242°
2026-05-09 08:41 45.15842 -63.02179 39950 ft 453 kts 242°
2026-05-09 08:42 45.12894 -63.10077 39950 ft 452 kts 242°
2026-05-09 08:42 45.09961 -63.17912 39950 ft 452 kts 242°
2026-05-09 08:43 45.07013 -63.25767 39948 ft 452 kts 242°
2026-05-09 08:43 45.04061 -63.33609 39950 ft 452 kts 242°
2026-05-09 08:44 45.01097 -63.41458 39950 ft 452 kts 242°
2026-05-09 08:44 44.98158 -63.49221 39978 ft 450 kts 242°
2026-05-09 08:45 44.95194 -63.57028 39953 ft 451 kts 242°
2026-05-09 08:45 44.92224 -63.64830 39953 ft 451 kts 242°
2026-05-09 08:46 44.89244 -63.72635 39938 ft 451 kts 242°
2026-05-09 08:46 44.86264 -63.80418 39950 ft 450 kts 242°
2026-05-09 08:47 44.83281 -63.88187 39953 ft 450 kts 242°
2026-05-09 08:47 44.80301 -63.95927 39961 ft 450 kts 242°
2026-05-09 08:48 44.77335 -64.03607 39956 ft 449 kts 242°
2026-05-09 08:48 44.74340 -64.11342 39957 ft 449 kts 242°
2026-05-09 08:49 44.71349 -64.19046 39968 ft 448 kts 242°
2026-05-09 08:49 44.68347 -64.26758 39957 ft 450 kts 242°
2026-05-09 08:50 44.65352 -64.34430 39957 ft 450 kts 242°
2026-05-09 08:50 44.62336 -64.42132 39958 ft 450 kts 242°
2026-05-09 08:51 44.59317 -64.49821 39964 ft 449 kts 242°
2026-05-09 08:51 44.56300 -64.57487 39965 ft 449 kts 242°
2026-05-09 08:52 44.53277 -64.65146 39969 ft 449 kts 242°
2026-05-09 08:52 44.50268 -64.72747 39969 ft 448 kts 242°
2026-05-09 08:53 44.47220 -64.80427 39977 ft 448 kts 242°
2026-05-09 08:53 44.44192 -64.88036 39987 ft 447 kts 242°
2026-05-09 08:54 44.41180 -64.95586 39984 ft 447 kts 242°
2026-05-09 08:54 44.38138 -65.03190 39992 ft 447 kts 242°
2026-05-09 08:55 44.35097 -65.10768 39989 ft 447 kts 243°
2026-05-09 08:55 44.32050 -65.18344 39993 ft 446 kts 243°
2026-05-09 08:56 44.29002 -65.25901 39998 ft 446 kts 243°
2026-05-09 08:56 44.25967 -65.33408 39999 ft 446 kts 242°
2026-05-09 08:57 44.22912 -65.40942 39997 ft 446 kts 243°
2026-05-09 08:57 44.19855 -65.48459 39998 ft 445 kts 243°
2026-05-09 08:58 44.16792 -65.55973 39999 ft 444 kts 243°
2026-05-09 08:58 44.14255 -65.62181 39995 ft 444 kts 243°
2026-05-09 08:59 44.11196 -65.69651 39998 ft 444 kts 243°
2026-05-09 08:59 44.08133 -65.77108 39995 ft 444 kts 242°
2026-05-09 09:00 44.05061 -65.84568 39993 ft 444 kts 242°
2026-05-09 09:00 44.02005 -65.91973 39995 ft 444 kts 242°
2026-05-09 09:01 43.98927 -65.99409 39995 ft 444 kts 242°
2026-05-09 09:01 43.95836 -66.06857 39987 ft 444 kts 242°
2026-05-09 09:02 43.92763 -66.14244 40003 ft 444 kts 242°
2026-05-09 09:02 43.89667 -66.21664 39990 ft 443 kts 242°
2026-05-09 09:03 43.86573 -66.29062 39992 ft 443 kts 242°
2026-05-09 09:03 43.83474 -66.36454 39987 ft 444 kts 242°
2026-05-09 09:04 43.80371 -66.43835 39997 ft 443 kts 242°
2026-05-09 09:04 43.77278 -66.51173 40003 ft 444 kts 242°
2026-05-09 09:05 43.74158 -66.58557 40002 ft 444 kts 242°
2026-05-09 09:05 43.71037 -66.65925 39998 ft 443 kts 242°
2026-05-09 09:06 43.67934 -66.73230 39999 ft 443 kts 242°
2026-05-09 09:06 43.64810 -66.80568 40011 ft 442 kts 242°
2026-05-09 09:07 43.61685 -66.87888 40009 ft 442 kts 242°
2026-05-09 09:07 43.58556 -66.95201 39997 ft 442 kts 243°
2026-05-09 09:08 43.55430 -67.02497 40015 ft 441 kts 243°
2026-05-09 09:08 43.52371 -67.09778 40016 ft 440 kts 243°
2026-05-09 09:09 43.49315 -67.17093 40020 ft 440 kts 243°
2026-05-09 09:09 43.46248 -67.24392 40022 ft 440 kts 243°
2026-05-09 09:10 43.43168 -67.31685 40021 ft 439 kts 243°
2026-05-09 09:10 43.40095 -67.38938 40023 ft 439 kts 243°
2026-05-09 09:11 43.37017 -67.46188 40023 ft 439 kts 243°
2026-05-09 09:11 43.33939 -67.53418 40024 ft 439 kts 243°
2026-05-09 09:12 43.30849 -67.60659 40014 ft 438 kts 243°
2026-05-09 09:12 43.27770 -67.67855 40020 ft 437 kts 243°
2026-05-09 09:13 43.24704 -67.75004 40020 ft 436 kts 243°
2026-05-09 09:13 43.21612 -67.82196 40026 ft 437 kts 243°
2026-05-09 09:14 43.18538 -67.89330 40010 ft 436 kts 243°
2026-05-09 09:14 43.15452 -67.96470 40032 ft 435 kts 243°
2026-05-09 09:15 43.12363 -68.03603 40024 ft 433 kts 243°
2026-05-09 09:15 43.09283 -68.10697 40025 ft 433 kts 243°
2026-05-09 09:16 43.06221 -68.17735 40009 ft 433 kts 243°
2026-05-09 09:16 43.01610 -68.28295 40029 ft 431 kts 243°
2026-05-09 09:17 42.98533 -68.35325 40032 ft 431 kts 243°
2026-05-09 09:17 42.95448 -68.42354 40032 ft 431 kts 243°
2026-05-09 09:18 42.92360 -68.49376 40014 ft 431 kts 243°
2026-05-09 09:18 42.89269 -68.56382 40042 ft 430 kts 243°
2026-05-09 09:19 42.86183 -68.63365 40035 ft 430 kts 243°
2026-05-09 09:19 42.83089 -68.70347 40031 ft 430 kts 243°
2026-05-09 09:20 42.79992 -68.77322 40037 ft 430 kts 243°
2026-05-09 09:20 42.76913 -68.84238 40037 ft 430 kts 243°
2026-05-09 09:21 42.73804 -68.91205 40033 ft 430 kts 243°
2026-05-09 09:21 42.70685 -68.98179 40037 ft 430 kts 243°
2026-05-09 09:22 42.67592 -69.05078 40034 ft 430 kts 243°
2026-05-09 09:22 42.64471 -69.12023 40026 ft 430 kts 243°
2026-05-09 09:23 42.61350 -69.18951 40024 ft 430 kts 243°
2026-05-09 09:23 42.58231 -69.25860 40037 ft 429 kts 243°
2026-05-09 09:24 42.55100 -69.32777 40038 ft 429 kts 243°
2026-05-09 09:24 42.51994 -69.39624 40034 ft 429 kts 243°
2026-05-09 09:25 42.48862 -69.46514 40042 ft 428 kts 243°
2026-05-09 09:25 42.45735 -69.53376 40055 ft 428 kts 243°
2026-05-09 09:26 42.42622 -69.60191 40046 ft 427 kts 243°
2026-05-09 09:26 42.39491 -69.67029 40044 ft 427 kts 243°
2026-05-09 09:27 42.36362 -69.73849 40044 ft 426 kts 243°
2026-05-09 09:27 42.33235 -69.80650 40043 ft 426 kts 243°
2026-05-09 09:28 42.30099 -69.87453 40055 ft 426 kts 243°
2026-05-09 09:28 42.26989 -69.94184 40042 ft 425 kts 243°
2026-05-09 09:29 42.23860 -70.00942 40031 ft 424 kts 243°
2026-05-09 09:29 42.20729 -70.07686 40042 ft 424 kts 243°
2026-05-09 09:30 42.17595 -70.14425 40045 ft 423 kts 243°
2026-05-09 09:30 42.14455 -70.21161 40055 ft 423 kts 243°
2026-05-09 09:31 42.11337 -70.27833 40044 ft 422 kts 243°
2026-05-09 09:32 42.06644 -70.37849 40039 ft 421 kts 243°
2026-05-09 09:32 42.03513 -70.44515 40038 ft 421 kts 243°
2026-05-09 09:33 42.00385 -70.51176 40037 ft 421 kts 243°
2026-05-09 09:33 41.97259 -70.57838 40022 ft 420 kts 243°
2026-05-09 09:34 41.94151 -70.64471 40014 ft 418 kts 243°
2026-05-09 09:34 41.91060 -70.71083 40017 ft 417 kts 243°
2026-05-09 09:36 41.78792 -70.97416 40026 ft 414 kts 243°
2026-05-09 09:37 41.75754 -71.03971 40018 ft 413 kts 243°
2026-05-09 09:37 41.72723 -71.10515 40019 ft 413 kts 243°
2026-05-09 09:38 41.69695 -71.17061 40023 ft 413 kts 243°
2026-05-09 09:38 41.66695 -71.23556 40005 ft 413 kts 243°
2026-05-09 09:39 41.63681 -71.30080 40024 ft 412 kts 243°
2026-05-09 09:39 41.60670 -71.36605 40027 ft 411 kts 243°
2026-05-09 09:40 41.57668 -71.43115 40025 ft 411 kts 243°
2026-05-09 09:40 41.54670 -71.49623 40026 ft 411 kts 243°
2026-05-09 09:41 41.51672 -71.56137 40020 ft 411 kts 243°
2026-05-09 09:41 41.48686 -71.62631 40019 ft 409 kts 243°
2026-05-09 09:42 41.45709 -71.69104 40009 ft 409 kts 243°
2026-05-09 09:42 41.42759 -71.75527 40007 ft 409 kts 243°
2026-05-09 09:43 41.39789 -71.81999 40008 ft 409 kts 243°
2026-05-09 09:43 41.36825 -71.88467 40022 ft 409 kts 243°
2026-05-09 09:44 41.33866 -71.94944 40009 ft 408 kts 243°
2026-05-09 09:44 41.30944 -72.01365 40008 ft 408 kts 243°
2026-05-09 09:45 41.28002 -72.07836 40006 ft 408 kts 243°
2026-05-09 09:45 41.25541 -72.13254 40008 ft 408 kts 243°
2026-05-09 09:46 41.22626 -72.19679 40007 ft 408 kts 243°
2026-05-09 09:46 41.19685 -72.26132 40019 ft 408 kts 243°
2026-05-09 09:47 41.16751 -72.32565 40006 ft 406 kts 243°
2026-05-09 09:47 41.13827 -72.38987 40008 ft 406 kts 244°
2026-05-09 09:48 41.10909 -72.45407 40008 ft 406 kts 244°
2026-05-09 09:48 41.07991 -72.51831 40009 ft 406 kts 244°
2026-05-09 09:49 41.05091 -72.58207 39994 ft 406 kts 244°
2026-05-09 09:49 41.02174 -72.64607 40008 ft 405 kts 244°
2026-05-09 09:50 40.99281 -72.70982 40009 ft 404 kts 244°
2026-05-09 09:50 40.96386 -72.77369 40003 ft 404 kts 244°
2026-05-09 09:51 40.93498 -72.83748 39999 ft 404 kts 244°
2026-05-09 09:51 40.90617 -72.90114 39965 ft 403 kts 244°
2026-05-09 09:52 40.87732 -72.96419 40005 ft 403 kts 244°
2026-05-09 09:52 40.84853 -73.02744 39981 ft 401 kts 244°
2026-05-09 09:53 40.81978 -73.09067 39980 ft 400 kts 244°
2026-05-09 09:53 40.79115 -73.15376 39986 ft 400 kts 244°
2026-05-09 09:54 40.76255 -73.21684 39990 ft 400 kts 244°
2026-05-09 09:54 40.73400 -73.27950 39993 ft 401 kts 244°
2026-05-09 09:55 40.70520 -73.34234 39988 ft 400 kts 244°
2026-05-09 09:55 40.67652 -73.40514 39990 ft 399 kts 244°
2026-05-09 09:56 40.64790 -73.46788 39988 ft 399 kts 244°
2026-05-09 09:56 40.61935 -73.53054 39989 ft 399 kts 244°
2026-05-09 09:57 40.59086 -73.59312 39971 ft 399 kts 244°
2026-05-09 09:57 40.56228 -73.65574 39994 ft 399 kts 244°
2026-05-09 09:58 40.53385 -73.71832 39969 ft 398 kts 244°
2026-05-09 09:58 40.50572 -73.78038 39968 ft 397 kts 244°
2026-05-09 09:59 40.47743 -73.84285 39985 ft 397 kts 244°
2026-05-09 09:59 40.44919 -73.90530 39986 ft 397 kts 244°
2026-05-09 10:00 40.42101 -73.96773 39965 ft 396 kts 244°
2026-05-09 10:00 40.39315 -74.02986 39994 ft 394 kts 244°
2026-05-09 10:01 40.36543 -74.09202 39987 ft 394 kts 244°
2026-05-09 10:01 40.33792 -74.15377 39986 ft 394 kts 244°
2026-05-09 10:02 40.31029 -74.21585 39988 ft 394 kts 244°
2026-05-09 10:02 40.28268 -74.27795 39987 ft 394 kts 244°
2026-05-09 10:03 40.25513 -74.34014 39983 ft 393 kts 244°
2026-05-09 10:03 40.22791 -74.40204 39981 ft 392 kts 244°
2026-05-09 10:04 40.20096 -74.46362 39982 ft 392 kts 245°
2026-05-09 10:04 40.17387 -74.52563 39960 ft 392 kts 245°
2026-05-09 10:05 40.14677 -74.58772 39958 ft 392 kts 245°
2026-05-09 10:05 40.11972 -74.64977 39957 ft 392 kts 245°
2026-05-09 10:06 40.09297 -74.71128 39954 ft 391 kts 245°
2026-05-09 10:06 40.06625 -74.77292 39963 ft 389 kts 245°
2026-05-09 10:07 40.03960 -74.83442 39963 ft 388 kts 245°
2026-05-09 10:07 40.01303 -74.89585 39962 ft 389 kts 245°
2026-05-09 10:08 39.98653 -74.95718 39962 ft 388 kts 245°
2026-05-09 10:08 39.96002 -75.01861 39965 ft 388 kts 245°
2026-05-09 10:09 39.93359 -75.07997 39935 ft 388 kts 245°
2026-05-09 10:09 39.90748 -75.14090 39961 ft 387 kts 245°
2026-05-09 10:10 39.88132 -75.20205 39960 ft 386 kts 245°
2026-05-09 10:10 39.85517 -75.26324 39962 ft 386 kts 245°
2026-05-09 10:11 39.82911 -75.32432 39963 ft 386 kts 245°
2026-05-09 10:11 39.80307 -75.38543 39962 ft 386 kts 245°
2026-05-09 10:12 39.77708 -75.44654 39959 ft 386 kts 245°
2026-05-09 10:12 39.75119 -75.50779 39954 ft 387 kts 245°
2026-05-09 10:13 39.72526 -75.56922 39953 ft 387 kts 245°
2026-05-09 10:13 39.69955 -75.63022 39953 ft 387 kts 245°
2026-05-09 10:14 39.67358 -75.69193 39953 ft 387 kts 245°
2026-05-09 10:14 39.64798 -75.75284 39953 ft 387 kts 245°
2026-05-09 10:15 39.62223 -75.81430 39957 ft 387 kts 245°
2026-05-09 10:15 39.59653 -75.87604 39948 ft 388 kts 245°
2026-05-09 10:16 39.57095 -75.93754 39954 ft 387 kts 245°
2026-05-09 10:16 39.54563 -75.99850 39954 ft 386 kts 245°
2026-05-09 10:17 39.52005 -76.06018 39957 ft 386 kts 245°
2026-05-09 10:17 39.49473 -76.12130 39952 ft 386 kts 245°
2026-05-09 10:18 39.46939 -76.18268 39962 ft 387 kts 245°
2026-05-09 10:18 39.44409 -76.24432 39955 ft 388 kts 245°
2026-05-09 10:19 39.41898 -76.30565 39953 ft 386 kts 246°
2026-05-09 10:19 39.39394 -76.36697 39952 ft 385 kts 246°
2026-05-09 10:20 39.36901 -76.42815 39962 ft 385 kts 246°
2026-05-09 10:20 39.34409 -76.48935 39962 ft 385 kts 246°
2026-05-09 10:21 39.31921 -76.55071 39962 ft 386 kts 246°
2026-05-09 10:21 39.29442 -76.61217 39936 ft 386 kts 246°
2026-05-09 10:22 39.26972 -76.67353 39933 ft 386 kts 246°
2026-05-09 10:22 39.24494 -76.73498 39938 ft 385 kts 246°
2026-05-09 10:23 39.22024 -76.79614 39940 ft 384 kts 246°
2026-05-09 10:23 39.19557 -76.85728 39968 ft 383 kts 246°
2026-05-09 10:24 39.17115 -76.91813 39953 ft 386 kts 246°
2026-05-09 10:24 39.14657 -76.97969 39947 ft 387 kts 246°
2026-05-09 10:25 39.12202 -77.04130 39946 ft 387 kts 246°
2026-05-09 10:25 39.09749 -77.10294 39941 ft 387 kts 246°
2026-05-09 10:26 39.07289 -77.16458 39935 ft 385 kts 246°
2026-05-09 10:26 39.04838 -77.22568 39948 ft 383 kts 246°
2026-05-09 10:27 39.02416 -77.28641 39942 ft 385 kts 246°
2026-05-09 10:27 38.99973 -77.34795 39938 ft 386 kts 246°
2026-05-09 10:28 38.97539 -77.40940 39932 ft 386 kts 246°
2026-05-09 10:28 38.95108 -77.47086 39934 ft 386 kts 246°
2026-05-09 10:29 38.92677 -77.53241 39934 ft 386 kts 246°
2026-05-09 10:29 38.90251 -77.59378 39939 ft 385 kts 246°
2026-05-09 10:30 38.87839 -77.65459 39942 ft 384 kts 246°
2026-05-09 10:30 38.85412 -77.71594 39948 ft 385 kts 246°
2026-05-09 10:31 38.83401 -77.76687 39952 ft 385 kts 246°
2026-05-09 10:31 38.80986 -77.82809 39943 ft 385 kts 246°
2026-05-09 10:32 38.78568 -77.88949 39940 ft 385 kts 246°
2026-05-09 10:32 38.76163 -77.95066 39941 ft 385 kts 246°
2026-05-09 10:33 38.73748 -78.01217 39936 ft 387 kts 246°
2026-05-09 10:33 38.71326 -78.07357 39929 ft 384 kts 247°
2026-05-09 10:34 38.68929 -78.13403 39924 ft 382 kts 247°
2026-05-09 10:34 38.65326 -78.22508 39936 ft 382 kts 247°
2026-05-09 10:35 38.62931 -78.28574 39932 ft 382 kts 247°
2026-05-09 10:35 38.60545 -78.34632 39936 ft 382 kts 247°
2026-05-09 10:36 38.58162 -78.40694 39934 ft 381 kts 247°
2026-05-09 10:36 38.55799 -78.46713 39939 ft 381 kts 247°
2026-05-09 10:37 38.53417 -78.52755 39932 ft 379 kts 247°
2026-05-09 10:37 38.51052 -78.58735 39936 ft 376 kts 247°
2026-05-09 10:38 38.48694 -78.64698 39936 ft 376 kts 247°
2026-05-09 10:38 38.46342 -78.70655 39940 ft 378 kts 247°
2026-05-09 10:39 38.43965 -78.76712 39943 ft 384 kts 247°
2026-05-09 10:39 38.41584 -78.82791 39944 ft 386 kts 247°
2026-05-09 10:40 38.39386 -78.88409 39945 ft 386 kts 247°
2026-05-09 10:40 38.36989 -78.94546 39942 ft 386 kts 247°
2026-05-09 10:41 38.34608 -79.00638 39944 ft 383 kts 247°
2026-05-09 10:41 38.32245 -79.06682 39842 ft 377 kts 247°
2026-05-09 10:42 38.31071 -79.09686 39197 ft 378 kts 247°
2026-05-09 10:42 38.29969 -79.12720 38585 ft 376 kts 251°
2026-05-09 10:42 38.29115 -79.15853 37839 ft 374 kts 256°
2026-05-09 10:42 38.28572 -79.19059 37073 ft 374 kts 262°
2026-05-09 10:43 38.28368 -79.22367 36322 ft 375 kts 268°
2026-05-09 10:43 38.28527 -79.25690 35572 ft 378 kts 274°
2026-05-09 10:43 38.29064 -79.28985 34937 ft 381 kts 280°
2026-05-09 10:43 38.29968 -79.32150 34446 ft 382 kts 287°
2026-05-09 10:44 38.32848 -79.37970 34382 ft 396 kts 300°
2026-05-09 10:44 38.34769 -79.40519 33899 ft 402 kts 307°
2026-05-09 10:44 38.37021 -79.42730 33140 ft 415 kts 315°
2026-05-09 10:45 38.39591 -79.44523 32346 ft 430 kts 325°
2026-05-09 10:46 38.51817 -79.45879 30181 ft 464 kts
2026-05-09 10:46 38.54923 -79.44656 29677 ft 466 kts 13°
2026-05-09 10:46 38.57899 -79.42988 29083 ft 468 kts 20°
2026-05-09 10:46 38.77823 -78.87025 28804 ft 0 kts 65°
2026-05-09 10:47 39.07848 -78.05271 20714 ft 15428 kts 64°
2026-05-09 10:47 39.30633 -77.44581 20535 ft 459 kts 61°
2026-05-09 10:47 39.32523 -77.41341 20097 ft 445 kts 41°
2026-05-09 10:47 39.34662 -77.38538 19836 ft 433 kts 45°
2026-05-09 10:48 39.36497 -77.35555 19596 ft 425 kts 52°
2026-05-09 10:48 39.38100 -77.32334 19334 ft 421 kts 57°
2026-05-09 10:48 39.39531 -77.29021 19092 ft 421 kts 60°
2026-05-09 10:48 39.64528 -76.68793 19003 ft 14038 kts 61°
2026-05-09 10:49 39.90997 -76.07264 18401 ft 13576 kts 59°
2026-05-09 10:49 40.32922 -75.14939 16796 ft 0 kts 59°
2026-05-09 10:49 40.34005 -75.11594 16565 ft 414 kts 77°
2026-05-09 10:49 40.34183 -75.07891 16178 ft 403 kts 97°
2026-05-09 10:50 40.33851 -75.04263 15645 ft 398 kts 99°
2026-05-09 10:50 40.33858 -75.00654 15416 ft 393 kts 83°
2026-05-09 10:50 40.34523 -74.97185 15217 ft 394 kts 70°
2026-05-09 10:50 40.35485 -74.93823 14961 ft 392 kts 68°
2026-05-09 10:51 40.36484 -74.90498 14749 ft 390 kts 68°
2026-05-09 10:51 40.37489 -74.87195 14499 ft 388 kts 68°
2026-05-09 10:51 40.38480 -74.83957 14251 ft 386 kts 68°
2026-05-09 10:51 40.39478 -74.80712 14008 ft 383 kts 68°
2026-05-09 10:52 40.40475 -74.77470 13794 ft 381 kts 68°
2026-05-09 10:52 40.41463 -74.74259 13523 ft 379 kts 68°
2026-05-09 10:52 40.42448 -74.71055 13244 ft 377 kts 68°
2026-05-09 10:52 40.43423 -74.67882 12982 ft 376 kts 68°
2026-05-09 10:53 40.44403 -74.64692 12707 ft 374 kts 68°
2026-05-09 10:53 40.45372 -74.61531 12447 ft 372 kts 68°
2026-05-09 10:53 40.46334 -74.58392 12137 ft 365 kts 68°
2026-05-09 10:53 40.47260 -74.55368 11433 ft 357 kts 69°
2026-05-09 10:54 40.48186 -74.52340 10346 ft 356 kts 69°
2026-05-09 10:54 40.49092 -74.49375 9732 ft 341 kts 70°
2026-05-09 10:54 40.49955 -74.46553 9167 ft 325 kts 70°
2026-05-09 10:54 40.50786 -74.43825 8435 ft 319 kts 70°
2026-05-09 10:55 40.51597 -74.41159 7962 ft 307 kts 70°
2026-05-09 10:55 40.52394 -74.38532 7741 ft 311 kts 70°
2026-05-09 10:55 40.53195 -74.35892 7483 ft 310 kts 70°
2026-05-09 10:55 40.53983 -74.33290 7218 ft 309 kts 70°
2026-05-09 10:56 40.54778 -74.30666 6997 ft 308 kts 70°
2026-05-09 10:56 40.55570 -74.28054 6741 ft 307 kts 70°
2026-05-09 10:56 40.56359 -74.25446 6490 ft 306 kts 70°
2026-05-09 10:56 40.57142 -74.22855 6247 ft 305 kts 70°
2026-05-09 10:57 40.57922 -74.20271 5992 ft 304 kts 70°
2026-05-09 10:57 40.58701 -74.17687 5734 ft 303 kts 70°
2026-05-09 10:57 40.59477 -74.15113 5466 ft 303 kts 70°
2026-05-09 10:57 40.60251 -74.12539 5225 ft 302 kts 69°
2026-05-09 10:58 40.61025 -74.09965 4998 ft 295 kts 69°
2026-05-09 10:58 40.61742 -74.07584 4854 ft 272 kts 69°
2026-05-09 10:58 40.62404 -74.05384 4703 ft 252 kts 69°
2026-05-09 10:58 40.63027 -74.03311 4563 ft 236 kts 69°
2026-05-09 10:59 40.63612 -74.01361 4400 ft 223 kts 70°
2026-05-09 10:59 40.64181 -73.99457 4143 ft 224 kts 70°
2026-05-09 10:59 40.64750 -73.97555 3764 ft 222 kts 69°
2026-05-09 10:59 40.65307 -73.95697 3519 ft 211 kts 70°
2026-05-09 11:00 40.65827 -73.93963 3311 ft 197 kts 71°
2026-05-09 11:00 40.66318 -73.92314 3063 ft 187 kts 71°
2026-05-09 11:00 40.66790 -73.90734 2998 ft 185 kts 71°
2026-05-09 11:00 40.67256 -73.89168 2992 ft 185 kts 71°
2026-05-09 11:01 40.67728 -73.87582 3005 ft 186 kts 71°
2026-05-09 11:01 40.68201 -73.85991 3001 ft 187 kts 71°
2026-05-09 11:01 40.68344 -73.85418 1566 ft 182 kts 76°
2026-05-09 11:01 40.68750 -73.83850 1883 ft 175 kts 70°
2026-05-09 11:02 40.69204 -73.82432 2095 ft 162 kts 70°
2026-05-09 11:02 40.69629 -73.81090 2311 ft 157 kts 70°
2026-05-09 11:02 40.70036 -73.79771 2542 ft 158 kts 71°
2026-05-09 11:02 40.70450 -73.78401 2609 ft 163 kts 71°
2026-05-09 11:03 40.70858 -73.77045 2547 ft 154 kts 71°
2026-05-09 11:03 40.71239 -73.75777 2501 ft 151 kts 71°
2026-05-09 11:03 40.71642 -73.74417 2461 ft 161 kts 71°
2026-05-09 11:03 40.72052 -73.73032 2405 ft 162 kts 71°
2026-05-09 11:04 40.72454 -73.71678 2211 ft 159 kts 71°
2026-05-09 11:04 40.72727 -73.70299 2011 ft 153 kts 91°
2026-05-09 11:04 40.72390 -73.69026 1818 ft 146 kts 136°
2026-05-09 11:04 40.71537 -73.68446 1476 ft 137 kts 176°
2026-05-09 11:05 40.70659 -73.68710 1440 ft 131 kts 210°
2026-05-09 11:05 40.69985 -73.69557 1673 ft 142 kts 230°
2026-05-09 11:05 40.69496 -73.70848 1836 ft 173 kts 249°
2026-05-09 11:05 40.69283 -73.72428 1999 ft 162 kts 261°
2026-05-09 11:06 40.69223 -73.73841 2077 ft 155 kts 265°
2026-05-09 11:06 40.72267 -73.70749 2021 ft 156 kts 211°
2026-05-09 11:06 40.71366 -73.71523 1788 ft 149 kts 214°
2026-05-09 11:06 40.70559 -73.72240 1772 ft 132 kts 214°
2026-05-09 11:07 40.69761 -73.72854 1783 ft 137 kts 202°
2026-05-09 11:07 40.68896 -73.73420 1567 ft 140 kts 205°
2026-05-09 11:07 40.68039 -73.74026 1245 ft 140 kts 211°
2026-05-09 11:07 40.67198 -73.74666 912 ft 139 kts 211°
2026-05-09 11:08 40.66375 -73.75333 566 ft 139 kts 212°
2026-05-09 11:08 40.65543 -73.75959 335 ft 139 kts 209°
2026-05-09 11:08 40.64713 -73.76603 152 ft 137 kts 207°
2026-05-09 11:08 40.63897 -73.77236 47 ft 135 kts 208°
2026-05-09 11:09 40.63127 -73.77837 35 ft 122 kts 212°
2026-05-09 11:09 40.62593 -73.78253 33 ft 37 kts 211°
2026-05-09 11:09 40.62468 -73.78350 35 ft 19 kts 210°
2026-05-09 11:09 40.62357 -73.78434 36 ft 19 kts 209°
2026-05-09 11:10 40.62251 -73.78519 34 ft 7 kts 222°
2026-05-09 11:10 40.62235 -73.78578 34 ft 8 kts 271°
2026-05-09 11:10 40.62264 -73.78646 36 ft 10 kts 315°
2026-05-09 11:10 40.62331 -73.78648 36 ft 12 kts 29°
2026-05-09 11:11 40.62408 -73.78589 36 ft 15 kts 30°
2026-05-09 11:11 40.62506 -73.78513 36 ft 18 kts 31°
2026-05-09 11:11 40.62633 -73.78412 32 ft 24 kts 31°
2026-05-09 11:11 40.62790 -73.78288 29 ft 29 kts 31°
2026-05-09 11:12 40.62932 -73.78179 29 ft 22 kts 31°
2026-05-09 11:12 40.63039 -73.78095 30 ft 0 kts 31°
2026-05-09 11:12 40.63046 -73.78089 30 ft 5 kts 31°
2026-05-09 11:12 40.63094 -73.78052 31 ft 10 kts 31°
2026-05-09 11:13 40.63162 -73.78025 33 ft 11 kts
2026-05-09 11:13 40.63256 -73.78005 33 ft 16 kts 11°
2026-05-09 11:13 40.63372 -73.77936 30 ft 21 kts 32°
2026-05-09 11:13 40.63455 -73.77870 30 ft 23 kts 31°
2026-05-09 11:14 40.63515 -73.77823 29 ft 25 kts 30°
2026-05-09 11:14 40.63670 -73.77702 26 ft 18 kts 31°
2026-05-09 11:14 40.63733 -73.77652 25 ft 17 kts 31°
2026-05-09 11:14 40.63846 -73.77564 28 ft 21 kts 30°
2026-05-09 11:15 40.63982 -73.77458 29 ft 13 kts 31°
2026-05-09 11:15 40.64070 -73.77444 28 ft 14 kts 323°
2026-05-09 11:15 40.64147 -73.77528 29 ft 13 kts 327°
2026-05-09 11:15 40.64204 -73.77573 29 ft 14 kts 332°
2026-05-09 11:16 40.64292 -73.77583 29 ft 13 kts 24°
2026-05-09 11:16 40.64347 -73.77539 29 ft 10 kts 31°
2026-05-09 11:16 40.64354 -73.77533 29 ft 0 kts 31°
2026-05-09 11:17 40.64098 -73.77896 30 ft 151 kts 271°
2026-05-09 11:17 40.64057 -73.77944 29 ft 0 kts 247°
2026-05-09 11:17 40.64047 -73.77971 29 ft 7 kts 245°
2026-05-09 11:17 40.64031 -73.78018 29 ft 7 kts 246°
2026-05-09 11:18 40.64023 -73.78043 29 ft 0 kts 247°
2026-05-09 11:18 40.64021 -73.78051 29 ft 4 kts 248°
2026-05-09 11:18 40.64017 -73.78064 29 ft 0 kts 248°